FDX34 KMCO-LFPG

Flight info

Callsign FDX34
Flight time 8h 28m
Altitude 31000
Route FATHE4 VIYAP Q87 JROSS Q135 RAPZZ Q135 RREGG EARZZ Q131 KALDA Q167 TOPRR VALCO KYSKY Q430 FLAPE KURLY KANNI N97B SUPRY 4650N 4840N 4830N 4820N 4815N UMLER UN734 UMOXA ADSET UT512 ANG UN741 KEPER
Aircraft MD11/H-SDE1E2E3FGHIJ2J3J4J5M1RWXY/LB1D1

Departure

Time 2026-04-25 14:15
Airport Orlando International Airport (KMCO)

Arrival

Time 2026-04-25 22:44
Airport Charles de Gaulle International Airport (LFPG)
Time Latitude Longitude Altitude Speed Heading
2026-04-25 12:33 28.41476 -81.33428 108 ft 0 kts 359°
2026-04-25 13:43 28.41475 -81.33428 109 ft 2 kts 359°
2026-04-25 13:43 28.41455 -81.33428 108 ft 3 kts 360°
2026-04-25 13:43 28.41435 -81.33428 109 ft 3 kts
2026-04-25 13:44 28.41418 -81.33430 109 ft 2 kts 19°
2026-04-25 13:44 28.41409 -81.33434 108 ft 1 kts 50°
2026-04-25 13:44 28.41405 -81.33441 108 ft 1 kts 80°
2026-04-25 13:44 28.41404 -81.33451 108 ft 1 kts 88°
2026-04-25 13:45 28.41404 -81.33460 108 ft 1 kts 90°
2026-04-25 13:45 28.41404 -81.33464 108 ft 0 kts 91°
2026-04-25 13:49 28.41404 -81.33449 108 ft 4 kts 90°
2026-04-25 13:50 28.41403 -81.33386 109 ft 11 kts 90°
2026-04-25 13:50 28.41404 -81.33288 111 ft 11 kts 90°
2026-04-25 13:50 28.41405 -81.33196 110 ft 12 kts 89°
2026-04-25 13:50 28.41406 -81.33097 110 ft 11 kts 86°
2026-04-25 13:51 28.41438 -81.33024 112 ft 10 kts 48°
2026-04-25 13:51 28.41474 -81.32980 112 ft 6 kts 46°
2026-04-25 13:51 28.41477 -81.32977 112 ft 0 kts 46°
2026-04-25 13:51 28.41480 -81.32973 112 ft 2 kts 46°
2026-04-25 13:52 28.41491 -81.32960 113 ft 5 kts 46°
2026-04-25 13:52 28.41527 -81.32914 113 ft 10 kts 57°
2026-04-25 13:52 28.41537 -81.32831 112 ft 10 kts 89°
2026-04-25 13:52 28.41538 -81.32794 113 ft 0 kts 89°
2026-04-25 13:54 28.41538 -81.32784 113 ft 3 kts 89°
2026-04-25 13:54 28.41539 -81.32746 113 ft 7 kts 89°
2026-04-25 13:55 28.41539 -81.32667 113 ft 14 kts 89°
2026-04-25 13:55 28.41540 -81.32522 112 ft 21 kts 89°
2026-04-25 13:55 28.41541 -81.32361 108 ft 20 kts 89°
2026-04-25 13:55 28.41542 -81.32217 109 ft 16 kts 89°
2026-04-25 13:56 28.41544 -81.32093 108 ft 15 kts 89°
2026-04-25 13:56 28.41565 -81.31994 106 ft 11 kts 43°
2026-04-25 13:56 28.41629 -81.31979 107 ft 8 kts
2026-04-25 13:56 28.41684 -81.31979 108 ft 8 kts 359°
2026-04-25 13:57 28.41742 -81.31981 109 ft 9 kts 359°
2026-04-25 13:57 28.41783 -81.31981 109 ft 9 kts 359°
2026-04-25 13:57 28.41890 -81.31981 110 ft 15 kts
2026-04-25 13:57 28.42007 -81.31983 111 ft 19 kts 359°
2026-04-25 13:58 28.42130 -81.31985 114 ft 15 kts 359°
2026-04-25 13:58 28.42224 -81.31986 115 ft 13 kts 359°
2026-04-25 13:58 28.42311 -81.31981 116 ft 10 kts 21°
2026-04-25 13:58 28.42344 -81.31920 113 ft 11 kts 78°
2026-04-25 13:59 28.42347 -81.31819 114 ft 16 kts 89°
2026-04-25 13:59 28.42348 -81.31670 111 ft 20 kts 90°
2026-04-25 13:59 28.42349 -81.31518 109 ft 19 kts 89°
2026-04-25 13:59 28.42351 -81.31366 108 ft 19 kts 89°
2026-04-25 14:00 28.42346 -81.31223 107 ft 17 kts 96°
2026-04-25 14:00 28.42329 -81.31106 105 ft 13 kts 101°
2026-04-25 14:00 28.42317 -81.31011 107 ft 12 kts 92°
2026-04-25 14:00 28.42320 -81.30919 107 ft 12 kts 86°
2026-04-25 14:01 28.42325 -81.30838 107 ft 9 kts 84°
2026-04-25 14:01 28.42329 -81.30787 110 ft 5 kts 85°
2026-04-25 14:01 28.42333 -81.30735 110 ft 11 kts 85°
2026-04-25 14:01 28.42341 -81.30613 111 ft 19 kts 85°
2026-04-25 14:02 28.42352 -81.30471 112 ft 17 kts 85°
2026-04-25 14:02 28.42358 -81.30332 109 ft 16 kts 89°
2026-04-25 14:02 28.42360 -81.30200 110 ft 17 kts 89°
2026-04-25 14:02 28.42361 -81.30108 111 ft 17 kts 89°
2026-04-25 14:03 28.42363 -81.29928 111 ft 16 kts 89°
2026-04-25 14:03 28.42362 -81.29823 110 ft 8 kts 79°
2026-04-25 14:03 28.42402 -81.29797 110 ft 8 kts 10°
2026-04-25 14:03 28.42470 -81.29795 110 ft 12 kts
2026-04-25 14:04 28.42568 -81.29794 110 ft 16 kts 360°
2026-04-25 14:04 28.42672 -81.29798 110 ft 14 kts 358°
2026-04-25 14:04 28.42756 -81.29801 110 ft 10 kts 358°
2026-04-25 14:04 28.42807 -81.29800 110 ft 2 kts
2026-04-25 14:05 28.42813 -81.29800 110 ft 0 kts
2026-04-25 14:05 28.42822 -81.29799 110 ft 3 kts
2026-04-25 14:05 28.42847 -81.29799 110 ft 5 kts
2026-04-25 14:05 28.42883 -81.29799 110 ft 6 kts 360°
2026-04-25 14:06 28.42929 -81.29799 110 ft 7 kts 360°
2026-04-25 14:06 28.42980 -81.29799 110 ft 7 kts 360°
2026-04-25 14:06 28.43033 -81.29800 111 ft 8 kts 359°
2026-04-25 14:06 28.43082 -81.29801 111 ft 6 kts 359°
2026-04-25 14:07 28.43111 -81.29801 111 ft 3 kts 359°
2026-04-25 14:07 28.43135 -81.29802 111 ft 5 kts 359°
2026-04-25 14:07 28.43175 -81.29802 111 ft 7 kts 359°
2026-04-25 14:07 28.43216 -81.29803 111 ft 5 kts 359°
2026-04-25 14:08 28.43219 -81.29803 111 ft 0 kts 359°
2026-04-25 14:08 28.43225 -81.29803 111 ft 2 kts 359°
2026-04-25 14:09 28.43251 -81.29803 111 ft 5 kts 359°
2026-04-25 14:09 28.43266 -81.29803 111 ft 0 kts 359°
2026-04-25 14:10 28.43284 -81.29803 111 ft 6 kts 359°
2026-04-25 14:10 28.43357 -81.29804 111 ft 13 kts 359°
2026-04-25 14:10 28.43439 -81.29805 111 ft 10 kts 359°
2026-04-25 14:11 28.43482 -81.29805 111 ft 1 kts 359°
2026-04-25 14:11 28.43508 -81.29805 111 ft 5 kts
2026-04-25 14:11 28.43535 -81.29792 111 ft 6 kts 38°
2026-04-25 14:11 28.43549 -81.29745 111 ft 8 kts 85°
2026-04-25 14:12 28.43550 -81.29716 111 ft 1 kts 89°
2026-04-25 14:12 28.43550 -81.29713 111 ft 0 kts 89°
2026-04-25 14:13 28.43550 -81.29700 111 ft 4 kts 89°
2026-04-25 14:13 28.43551 -81.29641 111 ft 10 kts 89°
2026-04-25 14:13 28.43529 -81.29591 109 ft 4 kts 149°
2026-04-25 14:13 28.43512 -81.29589 111 ft 3 kts 176°
2026-04-25 14:14 28.43492 -81.29588 112 ft 0 kts 178°
2026-04-25 14:14 28.43457 -81.29587 113 ft 25 kts 179°
2026-04-25 14:15 28.43024 -81.29583 111 ft 99 kts 180°
2026-04-25 14:15 28.42776 -81.29579 110 ft 121 kts 179°
2026-04-25 14:15 28.40825 -81.29558 207 ft 197 kts 179°
2026-04-25 14:15 28.39428 -81.29511 784 ft 202 kts 176°
2026-04-25 14:16 28.38071 -81.29052 1414 ft 208 kts 152°
2026-04-25 14:16 28.36845 -81.28182 2132 ft 205 kts 147°
2026-04-25 14:16 28.35679 -81.27291 2741 ft 209 kts 147°
2026-04-25 14:16 28.34433 -81.26360 3130 ft 220 kts 147°
2026-04-25 14:17 28.33123 -81.25396 3597 ft 228 kts 147°
2026-04-25 14:17 28.31898 -81.24224 3952 ft 237 kts 123°
2026-04-25 14:17 28.31350 -81.22432 4203 ft 248 kts 94°
2026-04-25 14:17 28.31376 -81.20434 4499 ft 257 kts 85°
2026-04-25 14:18 28.31762 -81.18412 4600 ft 272 kts 63°
2026-04-25 14:18 28.32991 -81.16729 4820 ft 290 kts 36°
2026-04-25 14:18 28.34879 -81.15765 5109 ft 306 kts
2026-04-25 14:18 28.37016 -81.15735 5741 ft 311 kts 352°
2026-04-25 14:19 28.39153 -81.16191 6442 ft 314 kts 346°
2026-04-25 14:19 28.41284 -81.16802 7114 ft 317 kts 345°
2026-04-25 14:19 28.43417 -81.17442 7850 ft 318 kts 344°
2026-04-25 14:19 28.45581 -81.18085 8552 ft 320 kts 344°
2026-04-25 14:20 28.47628 -81.18679 9853 ft 299 kts 344°
2026-04-25 14:20 28.48286 -81.18868 9996 ft 302 kts 344°
2026-04-25 14:20 28.51727 -81.19850 10881 ft 306 kts 344°
2026-04-25 14:20 28.53843 -81.20449 11086 ft 323 kts 345°
2026-04-25 14:21 28.56058 -81.21075 11219 ft 341 kts 345°
2026-04-25 14:21 28.58420 -81.21741 11397 ft 356 kts 345°
2026-04-25 14:21 28.60837 -81.22418 11968 ft 359 kts 345°
2026-04-25 14:21 28.63273 -81.23100 12540 ft 361 kts 345°
2026-04-25 14:22 28.65722 -81.23785 13115 ft 364 kts 345°
2026-04-25 14:22 28.68190 -81.24476 13678 ft 367 kts 345°
2026-04-25 14:22 28.70678 -81.25173 14176 ft 369 kts 345°
2026-04-25 14:22 28.73182 -81.25875 14624 ft 372 kts 345°
2026-04-25 14:23 28.75699 -81.26581 15091 ft 374 kts 345°
2026-04-25 14:23 28.78240 -81.27294 15533 ft 377 kts 344°
2026-04-25 14:23 28.80804 -81.28014 15976 ft 380 kts 344°
2026-04-25 14:23 28.83390 -81.28678 16404 ft 382 kts 348°
2026-04-25 14:24 28.86039 -81.29081 16829 ft 386 kts 352°
2026-04-25 14:24 28.88729 -81.29344 17235 ft 389 kts 353°
2026-04-25 14:24 28.91441 -81.29560 17619 ft 393 kts 354°
2026-04-25 14:24 28.94179 -81.29769 18008 ft 396 kts 354°
2026-04-25 14:25 28.96938 -81.29985 18386 ft 399 kts 354°
2026-04-25 14:25 28.99685 -81.30186 18742 ft 401 kts 354°
2026-04-25 14:25 29.02476 -81.30359 19111 ft 402 kts 355°
2026-04-25 14:25 29.03420 -81.30414 19232 ft 403 kts 355°
2026-04-25 14:26 29.08105 -81.30679 19804 ft 405 kts 355°
2026-04-25 14:26 29.10928 -81.30840 20145 ft 407 kts 355°
2026-04-25 14:26 29.13770 -81.31003 20486 ft 408 kts 355°
2026-04-25 14:26 29.16612 -81.31167 20824 ft 410 kts 355°
2026-04-25 14:27 29.19436 -81.31332 21160 ft 412 kts 355°
2026-04-25 14:27 29.22308 -81.31500 21499 ft 413 kts 355°
2026-04-25 14:27 29.25189 -81.31669 21823 ft 415 kts 355°
2026-04-25 14:27 29.28077 -81.31838 22153 ft 417 kts 355°
2026-04-25 14:28 29.30989 -81.32010 22499 ft 419 kts 355°
2026-04-25 14:28 29.33903 -81.32181 22846 ft 421 kts 355°
2026-04-25 14:28 29.36841 -81.32354 23192 ft 423 kts 355°
2026-04-25 14:28 29.39791 -81.32527 23552 ft 425 kts 355°
2026-04-25 14:29 29.42746 -81.32701 23852 ft 426 kts 355°
2026-04-25 14:29 29.45679 -81.32873 24157 ft 428 kts 355°
2026-04-25 14:29 29.48656 -81.33049 24456 ft 430 kts 355°
2026-04-25 14:29 29.51653 -81.33225 24752 ft 432 kts 356°
2026-04-25 14:30 29.54662 -81.33403 25060 ft 433 kts 356°
2026-04-25 14:30 29.60728 -81.33761 25629 ft 438 kts 356°
2026-04-25 14:30 29.63780 -81.33942 25918 ft 440 kts 356°
2026-04-25 14:31 29.66847 -81.34123 26226 ft 442 kts 356°
2026-04-25 14:31 29.69927 -81.34305 26520 ft 444 kts 356°
2026-04-25 14:31 29.73019 -81.34488 26817 ft 445 kts 356°
2026-04-25 14:31 29.76121 -81.34672 27106 ft 447 kts 356°
2026-04-25 14:32 29.79240 -81.34857 27386 ft 449 kts 356°
2026-04-25 14:32 29.82336 -81.35040 27656 ft 451 kts 356°
2026-04-25 14:32 29.85479 -81.35228 27926 ft 453 kts 357°
2026-04-25 14:32 29.88639 -81.35416 28200 ft 455 kts 357°
2026-04-25 14:33 29.91805 -81.35605 28480 ft 457 kts 357°
2026-04-25 14:33 29.94986 -81.35794 28743 ft 458 kts 357°
2026-04-25 14:33 29.98180 -81.35985 29016 ft 460 kts 357°
2026-04-25 14:33 30.01389 -81.36176 29286 ft 462 kts 357°
2026-04-25 14:34 30.04605 -81.36367 29534 ft 463 kts 357°
2026-04-25 14:34 30.07837 -81.36560 29773 ft 465 kts 357°
2026-04-25 14:34 30.11073 -81.36753 30001 ft 466 kts 357°
2026-04-25 14:34 30.13229 -81.36882 30132 ft 467 kts 357°
2026-04-25 14:35 30.17546 -81.37140 30366 ft 469 kts 357°
2026-04-25 14:35 30.20812 -81.37336 30539 ft 470 kts 357°
2026-04-25 14:35 30.22983 -81.37465 30646 ft 471 kts 357°
2026-04-25 14:35 30.26267 -81.37662 30850 ft 471 kts 357°
2026-04-25 14:36 30.32841 -81.38056 30957 ft 474 kts 357°
2026-04-25 14:36 30.39458 -81.38453 30962 ft 477 kts 357°
2026-04-25 14:37 30.46093 -81.38852 30961 ft 477 kts 357°
2026-04-25 14:37 30.52733 -81.39252 30971 ft 477 kts 357°
2026-04-25 14:38 30.59323 -81.39649 30971 ft 477 kts 357°
2026-04-25 14:38 30.65957 -81.40049 30971 ft 477 kts 357°
2026-04-25 14:39 30.72600 -81.40452 30970 ft 477 kts 357°
2026-04-25 14:39 30.79242 -81.40855 30966 ft 477 kts 357°
2026-04-25 14:40 30.85836 -81.41254 30963 ft 477 kts 357°
2026-04-25 14:40 30.92464 -81.41656 30960 ft 477 kts 357°
2026-04-25 14:41 30.99098 -81.42059 30955 ft 477 kts 357°
2026-04-25 14:41 31.05729 -81.42463 30953 ft 476 kts 357°
2026-04-25 14:42 31.11239 -81.42798 30953 ft 476 kts 357°
2026-04-25 14:42 31.18993 -81.43272 30952 ft 476 kts 357°
2026-04-25 14:43 31.25575 -81.43134 30961 ft 476 kts
2026-04-25 14:43 31.31883 -81.40809 30963 ft 478 kts 25°
2026-04-25 14:44 31.37799 -81.37207 30960 ft 479 kts 27°
2026-04-25 14:44 31.43746 -81.33659 30958 ft 479 kts 25°
2026-04-25 14:45 31.49769 -81.30298 30955 ft 479 kts 24°
2026-04-25 14:45 31.55778 -81.27021 30954 ft 478 kts 24°
2026-04-25 14:46 31.61796 -81.23739 30947 ft 477 kts 24°
2026-04-25 14:46 31.67817 -81.20443 30931 ft 477 kts 24°
2026-04-25 14:47 31.72825 -81.17699 30925 ft 477 kts 24°
2026-04-25 14:47 31.79831 -81.13863 30920 ft 477 kts 24°
2026-04-25 14:48 31.85848 -81.10567 30920 ft 477 kts 24°
2026-04-25 14:48 31.91864 -81.07267 30915 ft 477 kts 24°
2026-04-25 14:49 31.97877 -81.03964 30915 ft 477 kts 24°
2026-04-25 14:49 32.03892 -81.00616 30917 ft 477 kts 24°
2026-04-25 14:50 32.09897 -80.97237 30918 ft 478 kts 24°
2026-04-25 14:50 32.15858 -80.93879 30937 ft 478 kts 24°
2026-04-25 14:51 32.21862 -80.90496 30957 ft 478 kts 24°
2026-04-25 14:51 32.27855 -80.87115 30946 ft 476 kts 24°
2026-04-25 14:52 32.33831 -80.83740 30947 ft 476 kts 24°
2026-04-25 14:52 32.38809 -80.80925 30943 ft 476 kts 24°
2026-04-25 14:53 32.45805 -80.76962 30943 ft 476 kts 24°
2026-04-25 14:53 32.51751 -80.73588 30944 ft 476 kts 24°
2026-04-25 14:54 32.57741 -80.70184 30944 ft 477 kts 24°
2026-04-25 14:54 32.63731 -80.66775 30939 ft 477 kts 24°
2026-04-25 14:55 32.69670 -80.63346 30942 ft 477 kts 27°
2026-04-25 14:55 32.75006 -80.58636 30931 ft 481 kts 44°
2026-04-25 14:56 32.79357 -80.52553 30936 ft 483 kts 50°
2026-04-25 14:56 32.83557 -80.46388 30932 ft 483 kts 49°
2026-04-25 14:57 32.87914 -80.40296 30935 ft 483 kts 47°
2026-04-25 14:57 32.92330 -80.34266 30922 ft 483 kts 47°
2026-04-25 14:58 32.96754 -80.28236 30940 ft 483 kts 47°
2026-04-25 14:58 33.01139 -80.22240 30941 ft 483 kts 47°
2026-04-25 14:59 33.05551 -80.16193 30942 ft 483 kts 47°
2026-04-25 14:59 33.09971 -80.10123 30942 ft 484 kts 47°
2026-04-25 15:00 33.14393 -80.04038 30938 ft 485 kts 47°
2026-04-25 15:00 33.18785 -79.97985 30953 ft 485 kts 47°
2026-04-25 15:01 33.23205 -79.91884 30949 ft 485 kts 48°
2026-04-25 15:01 33.27593 -79.85815 30931 ft 485 kts 48°
2026-04-25 15:02 33.31997 -79.79680 30928 ft 485 kts 48°
2026-04-25 15:02 33.36407 -79.73542 30927 ft 487 kts 48°
2026-04-25 15:03 33.40814 -79.67434 30934 ft 487 kts 48°
2026-04-25 15:03 33.45242 -79.61300 30934 ft 487 kts 48°
2026-04-25 15:04 33.49668 -79.55159 30939 ft 487 kts 48°
2026-04-25 15:04 33.54105 -79.48993 30936 ft 488 kts 48°
2026-04-25 15:05 33.58530 -79.42830 30938 ft 488 kts 48°
2026-04-25 15:06 33.65174 -79.33557 30929 ft 488 kts 49°
2026-04-25 15:06 33.69570 -79.27390 30931 ft 488 kts 49°
2026-04-25 15:07 33.73974 -79.21182 30939 ft 488 kts 49°
2026-04-25 15:07 33.78393 -79.14953 30946 ft 490 kts 49°
2026-04-25 15:08 33.82820 -79.08709 30942 ft 490 kts 49°
2026-04-25 15:08 33.87212 -79.02506 30945 ft 489 kts 49°
2026-04-25 15:09 33.91625 -78.96261 30940 ft 489 kts 49°
2026-04-25 15:09 33.98237 -78.86883 30931 ft 490 kts 49°
2026-04-25 15:10 34.02649 -78.80613 30925 ft 490 kts 49°
2026-04-25 15:11 34.09269 -78.71182 30941 ft 490 kts 49°
2026-04-25 15:11 34.13673 -78.64895 30947 ft 490 kts 49°
2026-04-25 15:12 34.20245 -78.55491 30946 ft 490 kts 49°
2026-04-25 15:12 34.23229 -78.51310 30940 ft 490 kts 46°
2026-04-25 15:13 34.32470 -78.41124 30931 ft 490 kts 40°
2026-04-25 15:14 34.37589 -78.35740 30924 ft 490 kts 40°
2026-04-25 15:14 34.42705 -78.30274 30914 ft 491 kts 41°
2026-04-25 15:15 34.47810 -78.24779 30914 ft 491 kts 41°
2026-04-25 15:15 34.52913 -78.19273 30922 ft 491 kts 41°
2026-04-25 15:16 34.58018 -78.13759 30926 ft 491 kts 41°
2026-04-25 15:16 34.65669 -78.05479 30935 ft 491 kts 41°
2026-04-25 15:17 34.73294 -77.97207 30933 ft 492 kts 41°
2026-04-25 15:18 34.78397 -77.91659 30934 ft 492 kts 40°
2026-04-25 15:18 34.86058 -77.83312 30924 ft 492 kts 40°
2026-04-25 15:19 34.89475 -77.79671 30941 ft 492 kts 40°
2026-04-25 15:19 34.96467 -77.72394 30937 ft 494 kts 39°
2026-04-25 15:20 35.01664 -77.67000 30936 ft 494 kts 39°
2026-04-25 15:20 35.06896 -77.61551 30930 ft 494 kts 39°
2026-04-25 15:21 35.12172 -77.56171 30921 ft 493 kts 37°
2026-04-25 15:21 35.16747 -77.52000 30920 ft 494 kts 34°
2026-04-25 15:22 35.22337 -77.47097 30920 ft 494 kts 34°
2026-04-25 15:22 35.27912 -77.42184 30921 ft 494 kts 34°
2026-04-25 15:23 35.33479 -77.37233 30917 ft 494 kts 35°
2026-04-25 15:23 35.39039 -77.32268 30912 ft 494 kts 35°
2026-04-25 15:24 35.44597 -77.27296 30897 ft 494 kts 35°
2026-04-25 15:24 35.49217 -77.23158 30910 ft 494 kts 35°
2026-04-25 15:25 35.55663 -77.17374 30913 ft 493 kts 35°
2026-04-25 15:25 35.61216 -77.12382 30916 ft 495 kts 34°
2026-04-25 15:26 35.66771 -77.07381 30915 ft 495 kts 34°
2026-04-25 15:26 35.72327 -77.02369 30909 ft 495 kts 34°
2026-04-25 15:27 35.77880 -76.97349 30902 ft 495 kts 34°
2026-04-25 15:28 35.86171 -76.89804 30892 ft 496 kts 34°
2026-04-25 15:28 35.91974 -76.85221 30896 ft 494 kts 27°
2026-04-25 15:29 35.98027 -76.81185 30897 ft 493 kts 26°
2026-04-25 15:29 36.04083 -76.77198 30903 ft 494 kts 25°
2026-04-25 15:30 36.10139 -76.73136 30900 ft 495 kts 26°
2026-04-25 15:30 36.16142 -76.69071 30900 ft 495 kts 26°
2026-04-25 15:31 36.22182 -76.64967 30897 ft 495 kts 26°
2026-04-25 15:31 36.28224 -76.60858 30892 ft 496 kts 26°
2026-04-25 15:32 36.34281 -76.56733 30884 ft 496 kts 26°
2026-04-25 15:32 36.40292 -76.52632 30882 ft 496 kts 26°
2026-04-25 15:33 36.49368 -76.46424 30887 ft 495 kts 25°
2026-04-25 15:33 36.55412 -76.42283 30888 ft 496 kts 26°
2026-04-25 15:34 36.61456 -76.38131 30897 ft 496 kts 26°
2026-04-25 15:34 36.66483 -76.34656 30897 ft 496 kts 26°
2026-04-25 15:35 36.76540 -76.27709 30897 ft 497 kts 25°
2026-04-25 15:36 36.85626 -76.21428 30888 ft 497 kts 25°
2026-04-25 15:36 36.91674 -76.17238 30895 ft 497 kts 25°
2026-04-25 15:37 36.97700 -76.13056 30893 ft 498 kts 25°
2026-04-25 15:37 37.03758 -76.08842 30887 ft 497 kts 25°
2026-04-25 15:38 37.09867 -76.04774 30889 ft 496 kts 22°
2026-04-25 15:38 37.16149 -76.01173 30891 ft 495 kts 20°
2026-04-25 15:39 37.22411 -75.97707 30903 ft 496 kts 20°
2026-04-25 15:39 37.28721 -75.94173 30907 ft 496 kts 20°
2026-04-25 15:40 37.32932 -75.91794 30912 ft 496 kts 20°
2026-04-25 15:40 37.41324 -75.87032 30927 ft 497 kts 20°
2026-04-25 15:41 37.47652 -75.83433 30933 ft 498 kts 20°
2026-04-25 15:41 37.53968 -75.79836 30942 ft 498 kts 20°
2026-04-25 15:42 37.60245 -75.76254 30945 ft 497 kts 20°
2026-04-25 15:42 37.66537 -75.72657 30944 ft 496 kts 20°
2026-04-25 15:43 37.72827 -75.69055 30940 ft 496 kts 20°
2026-04-25 15:43 37.79130 -75.65439 30942 ft 496 kts 20°
2026-04-25 15:44 37.85375 -75.61683 30973 ft 500 kts 25°
2026-04-25 15:44 37.91215 -75.56915 30980 ft 504 kts 31°
2026-04-25 15:45 37.96932 -75.51754 30979 ft 504 kts 31°
2026-04-25 15:45 38.00765 -75.48315 30976 ft 504 kts 30°
2026-04-25 15:46 38.08386 -75.41430 30986 ft 505 kts 32°
2026-04-25 15:46 38.13979 -75.36141 30986 ft 504 kts 32°
2026-04-25 15:47 38.19595 -75.30799 31014 ft 504 kts 32°
2026-04-25 15:47 38.25215 -75.25462 31009 ft 504 kts 32°
2026-04-25 15:48 38.30839 -75.20120 31013 ft 504 kts 32°
2026-04-25 15:48 38.36458 -75.14773 31007 ft 504 kts 32°
2026-04-25 15:49 38.42074 -75.09417 31012 ft 504 kts 32°
2026-04-25 15:49 38.47677 -75.04017 30999 ft 505 kts 33°
2026-04-25 15:50 38.53068 -74.98216 31012 ft 506 kts 35°
2026-04-25 15:50 38.58458 -74.92430 31013 ft 506 kts 34°
2026-04-25 15:51 38.62059 -74.88653 31013 ft 505 kts 34°
2026-04-25 15:51 38.69324 -74.81082 31019 ft 506 kts 34°
2026-04-25 15:52 38.74779 -74.75381 31023 ft 506 kts 34°
2026-04-25 15:52 38.80116 -74.69446 31045 ft 509 kts 37°
2026-04-25 15:53 38.85336 -74.63288 31034 ft 510 kts 37°
2026-04-25 15:53 38.90555 -74.57102 31033 ft 510 kts 37°
2026-04-25 15:54 38.95828 -74.51011 31037 ft 508 kts 35°
2026-04-25 15:54 39.01237 -74.45153 31047 ft 508 kts 34°
2026-04-25 15:55 39.06639 -74.39377 31051 ft 508 kts 34°
2026-04-25 15:55 39.12066 -74.33537 31050 ft 508 kts 34°
2026-04-25 15:56 39.17483 -74.27673 31055 ft 507 kts 34°
2026-04-25 15:56 39.22858 -74.21840 31059 ft 508 kts 34°
2026-04-25 15:57 39.28265 -74.15960 31061 ft 508 kts 34°
2026-04-25 15:57 39.33671 -74.10070 31067 ft 508 kts 34°
2026-04-25 15:58 39.39070 -74.04174 31075 ft 508 kts 34°
2026-04-25 15:58 39.44459 -73.98243 31070 ft 507 kts 34°
2026-04-25 15:59 39.49785 -73.92351 31075 ft 506 kts 34°
2026-04-25 15:59 39.55154 -73.86414 31078 ft 506 kts 34°
2026-04-25 16:00 39.58740 -73.82447 31080 ft 506 kts 34°
2026-04-25 16:00 39.65872 -73.74541 31086 ft 506 kts 34°
2026-04-25 16:01 39.71226 -73.68591 31083 ft 506 kts 34°
2026-04-25 16:01 39.76545 -73.62666 31099 ft 505 kts 34°
2026-04-25 16:02 39.81878 -73.56711 31093 ft 504 kts 34°
2026-04-25 16:02 39.86991 -73.50403 31100 ft 512 kts 42°
2026-04-25 16:03 39.91505 -73.43176 31101 ft 516 kts 46°
2026-04-25 16:03 39.95891 -73.35763 31111 ft 516 kts 45°
2026-04-25 16:04 40.00322 -73.28405 31117 ft 515 kts 45°
2026-04-25 16:04 40.04779 -73.21092 31119 ft 514 kts 44°
2026-04-25 16:05 40.09344 -73.14019 31119 ft 509 kts 40°
2026-04-25 16:06 40.16735 -73.04090 31116 ft 507 kts 38°
2026-04-25 16:06 40.20847 -72.98631 31118 ft 507 kts 38°
2026-04-25 16:07 40.25766 -72.92019 31133 ft 506 kts 38°
2026-04-25 16:07 40.30666 -72.85385 31140 ft 506 kts 38°
2026-04-25 16:08 40.35568 -72.78735 31138 ft 507 kts 38°
2026-04-25 16:08 40.40439 -72.72112 31141 ft 507 kts 38°
2026-04-25 16:09 40.45329 -72.65449 31140 ft 507 kts 38°
2026-04-25 16:09 40.50214 -72.58777 31158 ft 505 kts 38°
2026-04-25 16:10 40.55066 -72.52133 31156 ft 502 kts 38°
2026-04-25 16:10 40.59904 -72.45500 31153 ft 502 kts 38°
2026-04-25 16:11 40.64707 -72.38898 31145 ft 500 kts 38°
2026-04-25 16:11 40.69485 -72.32265 31149 ft 498 kts 38°
2026-04-25 16:12 40.74255 -72.25652 31149 ft 498 kts 38°
2026-04-25 16:12 40.78717 -72.18627 31149 ft 507 kts 50°
2026-04-25 16:13 40.81708 -72.10031 31154 ft 525 kts 65°
2026-04-25 16:13 40.83743 -72.00733 31152 ft 528 kts 67°
2026-04-25 16:14 40.85875 -71.91524 31152 ft 525 kts 64°
2026-04-25 16:14 40.88208 -71.82390 31159 ft 524 kts 63°
2026-04-25 16:15 40.90596 -71.73279 31157 ft 523 kts 63°
2026-04-25 16:15 40.92954 -71.64231 31165 ft 524 kts 63°
2026-04-25 16:16 40.95335 -71.55099 31175 ft 524 kts 63°
2026-04-25 16:16 40.97723 -71.45989 31156 ft 523 kts 63°
2026-04-25 16:17 41.00108 -71.36896 31155 ft 523 kts 63°
2026-04-25 16:17 41.02263 -71.27659 31153 ft 527 kts 66°
2026-04-25 16:18 41.04226 -71.18306 31151 ft 527 kts 67°
2026-04-25 16:18 41.06257 -71.08979 31143 ft 522 kts 61°
2026-04-25 16:18 41.07713 -71.04641 31141 ft 510 kts 52°
2026-04-25 16:19 41.09573 -71.00694 31140 ft 501 kts 45°
2026-04-25 16:19 41.13716 -70.93391 31137 ft 497 kts 43°
2026-04-25 16:20 41.19895 -70.82243 31144 ft 499 kts 45°
2026-04-25 16:21 41.25858 -70.70875 31144 ft 500 kts 45°
2026-04-25 16:21 41.29820 -70.63267 31146 ft 500 kts 45°
2026-04-25 16:22 41.33786 -70.55650 31147 ft 500 kts 46°
2026-04-25 16:22 41.37738 -70.48041 31154 ft 497 kts 45°
2026-04-25 16:23 41.41663 -70.40471 31141 ft 497 kts 45°
2026-04-25 16:23 41.45564 -70.32933 31144 ft 497 kts 45°
2026-04-25 16:24 41.49485 -70.25336 31130 ft 497 kts 45°
2026-04-25 16:24 41.53400 -70.17727 31150 ft 497 kts 44°
2026-04-25 16:25 41.57279 -70.10110 31148 ft 496 kts 45°
2026-04-25 16:25 41.61159 -70.02483 31145 ft 496 kts 45°
2026-04-25 16:26 41.65046 -69.94862 31154 ft 496 kts 44°
2026-04-25 16:26 41.68936 -69.87230 31154 ft 497 kts 44°
2026-04-25 16:27 41.72811 -69.79603 31148 ft 494 kts 44°
2026-04-25 16:27 41.76548 -69.71826 31145 ft 504 kts 50°
2026-04-25 16:28 41.79565 -69.63337 31167 ft 513 kts 55°
2026-04-25 16:28 41.79719 -69.62864 31163 ft 513 kts 55°
2026-04-25 16:29 41.82514 -69.54108 31145 ft 514 kts 56°
2026-04-25 16:29 41.85364 -69.45324 31143 ft 512 kts 54°
2026-04-25 16:30 41.88252 -69.36584 31137 ft 512 kts 54°
2026-04-25 16:30 41.91149 -69.27839 31138 ft 512 kts 54°
2026-04-25 16:31 41.94039 -69.19078 31170 ft 513 kts 54°
2026-04-25 16:31 41.96919 -69.10304 31137 ft 512 kts 54°
2026-04-25 16:32 41.99773 -69.01584 31129 ft 512 kts 54°
2026-04-25 16:32 42.02637 -68.92809 31131 ft 513 kts 54°
2026-04-25 16:33 42.05497 -68.84013 31149 ft 513 kts 54°
2026-04-25 16:33 42.08340 -68.75233 31123 ft 511 kts 54°
2026-04-25 16:34 42.11160 -68.66445 31119 ft 512 kts 54°
2026-04-25 16:34 42.13968 -68.57626 31119 ft 512 kts 54°
2026-04-25 16:35 42.16784 -68.48817 31137 ft 510 kts 54°
2026-04-25 16:35 42.19586 -68.40050 31114 ft 509 kts 54°
2026-04-25 16:36 42.22370 -68.31331 31110 ft 509 kts 54°
2026-04-25 16:36 42.25169 -68.22532 31110 ft 509 kts 54°
2026-04-25 16:37 42.27961 -68.13723 31109 ft 511 kts 54°
2026-04-25 16:37 42.30753 -68.04880 31104 ft 511 kts 55°
2026-04-25 16:38 42.33517 -67.96089 31110 ft 511 kts 55°
2026-04-25 16:38 42.36297 -67.87225 31108 ft 511 kts 55°
2026-04-25 16:39 42.39070 -67.78353 31103 ft 512 kts 55°
2026-04-25 16:39 42.41837 -67.69470 31100 ft 512 kts 56°
2026-04-25 16:40 42.44572 -67.60557 31109 ft 513 kts 56°
2026-04-25 16:40 42.47302 -67.51646 31117 ft 512 kts 56°
2026-04-25 16:41 42.50031 -67.42766 31097 ft 509 kts 56°
2026-04-25 16:41 42.54100 -67.29530 31096 ft 510 kts 56°
2026-04-25 16:42 42.56820 -67.20641 31117 ft 510 kts 57°
2026-04-25 16:42 42.59524 -67.11765 31082 ft 508 kts 57°
2026-04-25 16:43 42.62219 -67.02891 31083 ft 508 kts 57°
2026-04-25 16:43 42.64886 -66.94082 31077 ft 507 kts 58°
2026-04-25 16:44 42.67560 -66.85218 31075 ft 507 kts 58°
2026-04-25 16:44 42.70224 -66.76355 31074 ft 504 kts 59°
2026-04-25 16:45 42.72869 -66.67521 31070 ft 504 kts 59°
2026-04-25 16:45 42.75433 -66.58618 31071 ft 504 kts 63°
2026-04-25 16:46 42.77772 -66.49679 31068 ft 504 kts 64°
2026-04-25 16:46 42.79325 -66.43659 31053 ft 504 kts 64°
2026-04-25 16:47 42.82440 -66.31675 31065 ft 504 kts 64°
2026-04-25 16:47 42.84782 -66.22687 31067 ft 502 kts 64°
2026-04-25 16:48 42.87101 -66.13755 31042 ft 498 kts 65°
2026-04-25 16:48 42.89407 -66.04842 31030 ft 498 kts 65°
2026-04-25 16:49 42.91704 -65.95928 31031 ft 498 kts 65°
2026-04-25 16:49 42.93996 -65.87000 31026 ft 498 kts 66°
2026-04-25 16:50 42.96264 -65.78133 31031 ft 495 kts 67°
2026-04-25 16:50 42.98522 -65.69263 31021 ft 493 kts 67°
2026-04-25 16:51 43.00770 -65.60406 31010 ft 493 kts 67°
2026-04-25 16:51 43.02265 -65.54476 31004 ft 493 kts 68°
2026-04-25 16:52 43.04827 -65.44145 31007 ft 494 kts 68°
2026-04-25 16:52 43.07035 -65.35285 30996 ft 490 kts 68°
2026-04-25 16:53 43.10331 -65.22088 30983 ft 486 kts 68°
2026-04-25 16:54 43.12514 -65.13315 30994 ft 486 kts 68°
2026-04-25 16:54 43.14675 -65.04596 30972 ft 486 kts 69°
2026-04-25 16:55 43.16843 -64.95814 30979 ft 485 kts 69°
2026-04-25 16:55 43.18996 -64.87057 30977 ft 484 kts 69°
2026-04-25 16:56 43.21140 -64.78302 30988 ft 484 kts 69°
2026-04-25 16:56 43.23273 -64.69559 30975 ft 482 kts 69°
2026-04-25 16:57 43.25381 -64.60887 30974 ft 482 kts 69°
2026-04-25 16:57 43.27495 -64.52155 30966 ft 481 kts 69°
2026-04-25 16:58 43.29583 -64.43425 30964 ft 481 kts 70°
2026-04-25 16:58 43.31650 -64.34678 30961 ft 481 kts 70°
2026-04-25 16:59 43.33732 -64.25927 30967 ft 481 kts 70°
2026-04-25 16:59 43.35801 -64.17248 30958 ft 480 kts 70°
2026-04-25 17:00 43.37871 -64.08536 30951 ft 479 kts 70°
2026-04-25 17:00 43.39938 -63.99800 30952 ft 479 kts 70°
2026-04-25 17:01 43.41993 -63.91081 30943 ft 479 kts 70°
2026-04-25 17:01 43.44032 -63.82394 30942 ft 479 kts 70°
2026-04-25 17:02 43.46078 -63.73643 30944 ft 479 kts 70°
2026-04-25 17:02 43.48108 -63.64924 30932 ft 477 kts 71°
2026-04-25 17:03 43.50128 -63.56218 30925 ft 477 kts 70°
2026-04-25 17:03 43.52141 -63.47509 30927 ft 477 kts 71°
2026-04-25 17:04 43.54137 -63.38825 30923 ft 477 kts 70°
2026-04-25 17:04 43.56105 -63.30078 30916 ft 477 kts 71°
2026-04-25 17:05 43.58078 -63.21336 30908 ft 477 kts 70°
2026-04-25 17:05 43.61053 -63.08219 30905 ft 477 kts 70°
2026-04-25 17:06 43.63023 -62.99512 30914 ft 478 kts 71°
2026-04-25 17:06 43.64997 -62.90747 30904 ft 477 kts 71°
2026-04-25 17:07 43.66965 -62.81972 30900 ft 478 kts 71°
2026-04-25 17:07 43.68929 -62.73173 30892 ft 478 kts 71°
2026-04-25 17:08 43.70874 -62.64428 30890 ft 478 kts 71°
2026-04-25 17:08 43.72822 -62.55629 30882 ft 478 kts 71°
2026-04-25 17:09 43.74763 -62.46833 30883 ft 479 kts 71°
2026-04-25 17:09 43.76699 -62.38016 30873 ft 479 kts 71°
2026-04-25 17:10 43.78631 -62.29179 30872 ft 480 kts 71°
2026-04-25 17:10 43.80524 -62.20319 30859 ft 480 kts 71°
2026-04-25 17:11 43.82407 -62.11525 30863 ft 479 kts 71°
2026-04-25 17:11 43.84314 -62.02671 30859 ft 479 kts 70°
2026-04-25 17:12 43.86224 -61.93796 30855 ft 480 kts 70°
2026-04-25 17:12 43.88125 -61.84924 30843 ft 480 kts 71°
2026-04-25 17:13 43.89701 -61.77538 30839 ft 480 kts 71°
2026-04-25 17:13 43.91898 -61.67199 30831 ft 480 kts 71°
2026-04-25 17:14 43.93779 -61.58302 30839 ft 480 kts 71°
2026-04-25 17:14 43.95649 -61.49417 30821 ft 479 kts 71°
2026-04-25 17:15 43.97514 -61.40523 30818 ft 479 kts 70°
2026-04-25 17:15 43.99357 -61.31689 30813 ft 479 kts 70°
2026-04-25 17:16 44.01207 -61.22790 30812 ft 479 kts 71°
2026-04-25 17:16 44.03029 -61.13883 30795 ft 479 kts 71°
2026-04-25 17:17 44.04830 -61.04971 30799 ft 478 kts 71°
2026-04-25 17:17 44.06638 -60.96093 30793 ft 477 kts 71°
2026-04-25 17:18 44.08448 -60.87229 30794 ft 477 kts 71°
2026-04-25 17:18 44.10243 -60.78404 30781 ft 477 kts 71°
2026-04-25 17:19 44.12043 -60.69515 30782 ft 478 kts 70°
2026-04-25 17:19 44.13846 -60.60569 30777 ft 479 kts 71°
2026-04-25 17:20 44.15639 -60.51630 30783 ft 479 kts 71°
2026-04-25 17:20 44.17418 -60.42719 30764 ft 480 kts 71°
2026-04-25 17:21 44.19200 -60.33755 30764 ft 480 kts 71°
2026-04-25 17:21 44.20978 -60.24773 30760 ft 481 kts 71°
2026-04-25 17:22 44.22453 -60.17287 30758 ft 482 kts 71°
2026-04-25 17:22 44.24517 -60.06746 30744 ft 482 kts 71°
2026-04-25 17:23 44.26232 -59.97760 30761 ft 482 kts 72°
2026-04-25 17:23 44.27962 -59.88732 30742 ft 481 kts 71°
2026-04-25 17:24 44.29706 -59.79696 30726 ft 483 kts 72°
2026-04-25 17:24 44.31452 -59.70628 30736 ft 484 kts 72°
2026-04-25 17:25 44.33194 -59.61540 30726 ft 484 kts 72°
2026-04-25 17:25 44.34928 -59.52441 30714 ft 484 kts 72°
2026-04-25 17:26 44.36644 -59.43398 30718 ft 485 kts 72°
2026-04-25 17:26 44.38365 -59.34281 30709 ft 485 kts 72°
2026-04-25 17:27 44.40082 -59.25143 30711 ft 486 kts 72°
2026-04-25 17:27 44.41220 -59.19066 30700 ft 486 kts 72°
2026-04-25 17:28 44.43489 -59.06879 30700 ft 486 kts 72°
2026-04-25 17:28 44.45188 -58.97707 30689 ft 486 kts 72°
2026-04-25 17:29 44.46853 -58.88524 30689 ft 487 kts 72°
2026-04-25 17:29 44.48505 -58.79332 30691 ft 485 kts 72°
2026-04-25 17:30 44.50158 -58.70222 30902 ft 485 kts 72°
2026-04-25 17:30 44.50990 -58.65643 31075 ft 485 kts 72°
2026-04-25 17:30 44.51821 -58.61064 31262 ft 485 kts 72°
2026-04-25 17:31 44.52650 -58.56483 31442 ft 485 kts 72°
2026-04-25 17:31 44.53477 -58.51902 31620 ft 485 kts 72°
2026-04-25 17:31 44.54301 -58.47325 31817 ft 485 kts 72°
2026-04-25 17:31 44.55126 -58.42731 31998 ft 485 kts 72°
2026-04-25 17:32 44.55950 -58.38134 32185 ft 485 kts 72°
2026-04-25 17:32 44.56771 -58.33535 32374 ft 485 kts 72°
2026-04-25 17:32 44.57590 -58.28936 32565 ft 485 kts 73°
2026-04-25 17:32 44.58394 -58.24412 32636 ft 484 kts 73°
2026-04-25 17:33 44.60021 -58.15222 32662 ft 484 kts 73°
2026-04-25 17:33 44.61638 -58.06040 32644 ft 484 kts 73°
2026-04-25 17:34 44.63249 -57.96851 32654 ft 485 kts 73°
2026-04-25 17:34 44.64845 -57.87694 32645 ft 485 kts 73°
2026-04-25 17:35 44.66431 -57.78471 32644 ft 486 kts 73°
2026-04-25 17:35 44.67989 -57.69219 32630 ft 486 kts 73°
2026-04-25 17:36 44.69557 -57.59988 32630 ft 486 kts 73°
2026-04-25 17:36 44.71134 -57.50743 32626 ft 486 kts 73°
2026-04-25 17:37 44.72699 -57.41531 32613 ft 486 kts 73°
2026-04-25 17:37 44.74264 -57.32275 32608 ft 486 kts 73°
2026-04-25 17:38 44.75307 -57.26072 32610 ft 486 kts 73°
2026-04-25 17:38 44.77372 -57.13724 32623 ft 486 kts 73°
2026-04-25 17:39 44.78904 -57.04510 32590 ft 486 kts 73°
2026-04-25 17:39 44.80439 -56.95222 32595 ft 486 kts 73°
2026-04-25 17:40 44.81970 -56.85916 32579 ft 487 kts 73°
2026-04-25 17:40 44.83233 -56.78196 32579 ft 487 kts 73°
2026-04-25 17:41 44.84990 -56.67372 32585 ft 487 kts 74°
2026-04-25 17:41 44.86211 -56.59625 32568 ft 487 kts 74°
2026-04-25 17:42 44.87686 -56.50291 32568 ft 487 kts 74°
2026-04-25 17:42 44.89171 -56.40969 32559 ft 486 kts 74°
2026-04-25 17:43 44.90646 -56.31709 32561 ft 487 kts 74°
2026-04-25 17:43 44.92132 -56.22328 32548 ft 487 kts 74°
2026-04-25 17:44 44.93592 -56.13055 32548 ft 487 kts 74°
2026-04-25 17:44 44.95054 -56.03716 32542 ft 487 kts 74°
2026-04-25 17:45 44.96265 -55.95935 32541 ft 487 kts 74°
2026-04-25 17:45 44.97956 -55.85008 32527 ft 487 kts 74°
2026-04-25 17:46 44.99394 -55.75659 32522 ft 487 kts 74°
2026-04-25 17:46 45.00826 -55.66299 32520 ft 487 kts 74°
2026-04-25 17:47 45.02239 -55.57004 32517 ft 487 kts 74°
2026-04-25 17:47 45.03633 -55.47615 32509 ft 487 kts 75°
2026-04-25 17:48 45.05705 -55.33514 32506 ft 488 kts 75°
2026-04-25 17:49 45.07091 -55.24183 32498 ft 488 kts 75°
2026-04-25 17:49 45.08484 -55.14780 32482 ft 488 kts 75°
2026-04-25 17:50 45.09869 -55.05369 32483 ft 488 kts 75°
2026-04-25 17:50 45.11241 -54.95986 32471 ft 488 kts 75°
2026-04-25 17:51 45.12602 -54.86624 32472 ft 488 kts 75°
2026-04-25 17:51 45.13966 -54.77180 32476 ft 489 kts 75°
2026-04-25 17:52 45.15312 -54.67802 32461 ft 488 kts 75°
2026-04-25 17:52 45.16659 -54.58359 32448 ft 489 kts 75°
2026-04-25 17:53 45.17996 -54.48922 32451 ft 489 kts 75°
2026-04-25 17:53 45.19329 -54.39458 32445 ft 489 kts 75°
2026-04-25 17:54 45.20621 -54.29980 32440 ft 489 kts 76°
2026-04-25 17:54 45.21902 -54.20556 32435 ft 489 kts 76°
2026-04-25 17:55 45.23203 -54.11090 32422 ft 488 kts 76°
2026-04-25 17:55 45.24507 -54.01604 32422 ft 489 kts 76°
2026-04-25 17:56 45.25801 -53.92124 32425 ft 489 kts 76°
2026-04-25 17:56 45.27077 -53.82713 32416 ft 488 kts 76°
2026-04-25 17:57 45.28352 -53.73235 32412 ft 488 kts 76°
2026-04-25 17:57 45.29621 -53.63749 32427 ft 488 kts 76°
2026-04-25 17:58 45.30881 -53.54263 32403 ft 488 kts 76°
2026-04-25 17:58 45.32133 -53.44775 32394 ft 488 kts 76°
2026-04-25 17:59 45.33369 -53.35338 32398 ft 488 kts 76°
2026-04-25 17:59 45.34606 -53.25836 32377 ft 488 kts 76°
2026-04-25 18:00 45.35808 -53.16351 32386 ft 488 kts 77°
2026-04-25 18:00 45.36996 -53.06819 32368 ft 488 kts 76°
2026-04-25 18:01 45.38191 -52.97364 32373 ft 489 kts 76°
2026-04-25 18:01 45.39397 -52.87846 32373 ft 489 kts 77°
2026-04-25 18:02 45.40597 -52.78308 32361 ft 489 kts 77°
2026-04-25 18:02 45.41787 -52.68783 32354 ft 489 kts 77°
2026-04-25 18:03 45.42970 -52.59238 32353 ft 489 kts 77°
2026-04-25 18:03 45.44146 -52.49686 32348 ft 489 kts 77°
2026-04-25 18:04 45.45315 -52.40124 32364 ft 491 kts 77°
2026-04-25 18:04 45.46475 -52.30572 32335 ft 493 kts 77°
2026-04-25 18:05 45.47642 -52.20880 32335 ft 493 kts 77°
2026-04-25 18:05 45.48786 -52.11299 32326 ft 494 kts 77°
2026-04-25 18:06 45.49940 -52.01654 32326 ft 493 kts 75°
2026-04-25 18:06 45.51876 -51.92344 32337 ft 489 kts 67°
2026-04-25 18:07 45.54309 -51.83277 32315 ft 489 kts 66°
2026-04-25 18:07 45.56747 -51.74214 32307 ft 489 kts 66°
2026-04-25 18:08 45.59125 -51.65105 32310 ft 489 kts 67°
2026-04-25 18:08 45.61474 -51.55970 32324 ft 490 kts 67°
2026-04-25 18:09 45.63816 -51.46819 32293 ft 490 kts 67°
2026-04-25 18:09 45.66152 -51.37665 32292 ft 490 kts 68°
2026-04-25 18:10 45.68467 -51.28560 32284 ft 490 kts 68°
2026-04-25 18:10 45.70791 -51.19384 32283 ft 490 kts 68°
2026-04-25 18:11 45.73107 -51.10199 32281 ft 490 kts 68°
2026-04-25 18:11 45.75412 -51.01025 32267 ft 490 kts 68°
2026-04-25 18:12 45.77712 -50.91835 32269 ft 491 kts 68°
2026-04-25 18:12 45.79989 -50.82570 32257 ft 494 kts 69°
2026-04-25 18:13 45.82266 -50.73266 32269 ft 495 kts 69°
2026-04-25 18:13 45.84546 -50.64006 32256 ft 496 kts 69°
2026-04-25 18:14 45.87990 -50.50003 32246 ft 496 kts 69°
2026-04-25 18:14 45.90277 -50.40659 32247 ft 496 kts 69°
2026-04-25 18:15 45.92561 -50.31284 32238 ft 497 kts 69°
2026-04-25 18:15 45.94838 -50.21897 32230 ft 497 kts 69°
2026-04-25 18:16 45.97091 -50.12568 32229 ft 497 kts 69°
2026-04-25 18:17 46.00500 -49.98419 32226 ft 501 kts 70°
2026-04-25 18:17 46.02838 -49.88945 32216 ft 502 kts 69°
2026-04-25 18:18 46.05198 -49.79522 32212 ft 502 kts 69°
2026-04-25 18:18 46.07569 -49.70045 32213 ft 502 kts 69°
2026-04-25 18:19 46.09934 -49.60543 32216 ft 502 kts 69°
2026-04-25 18:19 46.12272 -49.51104 32212 ft 503 kts 69°
2026-04-25 18:20 46.14615 -49.41601 32211 ft 503 kts 70°
2026-04-25 18:20 46.16950 -49.32092 32210 ft 502 kts 70°
2026-04-25 18:21 46.19279 -49.22570 32208 ft 502 kts 70°
2026-04-25 18:21 46.21605 -49.13019 32208 ft 505 kts 71°
2026-04-25 18:22 46.23937 -49.03398 32208 ft 508 kts 71°
2026-04-25 18:22 46.26262 -48.93763 32205 ft 508 kts 71°
2026-04-25 18:23 46.28548 -48.84177 32206 ft 507 kts 71°
2026-04-25 18:23 46.30826 -48.74488 32215 ft 509 kts 72°
2026-04-25 18:24 46.33125 -48.64777 32220 ft 510 kts 71°
2026-04-25 18:24 46.35426 -48.55076 32217 ft 510 kts 71°
2026-04-25 18:25 46.37720 -48.45368 32227 ft 509 kts 71°
2026-04-25 18:25 46.40003 -48.35661 32232 ft 508 kts 72°
2026-04-25 18:26 46.42263 -48.26006 32226 ft 509 kts 72°
2026-04-25 18:26 46.44538 -48.16241 32238 ft 513 kts 72°
2026-04-25 18:27 46.46438 -48.08054 32251 ft 516 kts 73°
2026-04-25 18:27 46.48721 -47.98179 32254 ft 515 kts 73°
2026-04-25 18:28 46.50989 -47.88318 32258 ft 514 kts 73°
2026-04-25 18:28 46.53247 -47.78460 32256 ft 514 kts 73°
2026-04-25 18:29 46.56577 -47.63625 32275 ft 514 kts 74°
2026-04-25 18:30 46.61001 -47.43912 32284 ft 514 kts 73°
2026-04-25 18:30 46.63219 -47.34029 32285 ft 514 kts 74°
2026-04-25 18:31 46.65436 -47.24102 32298 ft 516 kts 74°
2026-04-25 18:31 46.67635 -47.14206 32309 ft 517 kts 75°
2026-04-25 18:32 46.69841 -47.04232 32314 ft 517 kts 75°
2026-04-25 18:32 46.72036 -46.94257 32326 ft 517 kts 75°
2026-04-25 18:33 46.74225 -46.84263 32325 ft 517 kts 75°
2026-04-25 18:33 46.76407 -46.74254 32338 ft 517 kts 75°
2026-04-25 18:34 46.78580 -46.64234 32339 ft 517 kts 75°
2026-04-25 18:34 46.80711 -46.54268 32353 ft 517 kts 75°
2026-04-25 18:35 46.82827 -46.44230 32355 ft 517 kts 75°
2026-04-25 18:35 46.84963 -46.34171 32359 ft 519 kts 76°
2026-04-25 18:36 46.87111 -46.24072 32372 ft 520 kts 76°
2026-04-25 18:36 46.89243 -46.14012 32381 ft 521 kts 76°
2026-04-25 18:37 46.91377 -46.03887 32389 ft 520 kts 76°
2026-04-25 18:37 46.93503 -45.93741 32397 ft 520 kts 76°
2026-04-25 18:38 46.95602 -45.83676 32407 ft 520 kts 76°
2026-04-25 18:38 46.97706 -45.73535 32406 ft 520 kts 76°
2026-04-25 18:39 46.99805 -45.63367 32401 ft 520 kts 76°
2026-04-25 18:39 47.01897 -45.53185 32413 ft 521 kts 77°
2026-04-25 18:40 47.03964 -45.43060 32416 ft 521 kts 77°
2026-04-25 18:40 47.06003 -45.32816 32429 ft 524 kts 77°
2026-04-25 18:41 47.08053 -45.22545 32437 ft 524 kts 77°
2026-04-25 18:41 47.10115 -45.12276 32448 ft 524 kts 77°
2026-04-25 18:42 47.11828 -45.03726 32450 ft 524 kts 77°
2026-04-25 18:42 47.14211 -44.91774 32457 ft 524 kts 77°
2026-04-25 18:43 47.16249 -44.81485 32459 ft 524 kts 78°
2026-04-25 18:43 47.18276 -44.71196 32461 ft 524 kts 78°
2026-04-25 18:44 47.20296 -44.60889 32470 ft 524 kts 78°
2026-04-25 18:44 47.22303 -44.50590 32471 ft 523 kts 78°
2026-04-25 18:45 47.24290 -44.40342 32471 ft 525 kts 78°
2026-04-25 18:45 47.26282 -44.30008 32482 ft 525 kts 79°
2026-04-25 18:46 47.28242 -44.19656 32491 ft 524 kts 79°
2026-04-25 18:46 47.30180 -44.09288 32497 ft 524 kts 79°
2026-04-25 18:47 47.32134 -43.98918 32499 ft 524 kts 79°
2026-04-25 18:47 47.34092 -43.88548 32502 ft 525 kts 80°
2026-04-25 18:48 47.36028 -43.78237 32511 ft 525 kts 80°
2026-04-25 18:48 47.37966 -43.67852 32511 ft 524 kts 80°
2026-04-25 18:49 47.39894 -43.57458 32512 ft 524 kts 80°
2026-04-25 18:49 47.41812 -43.47062 32470 ft 524 kts 81°
2026-04-25 18:50 47.43724 -43.36634 32525 ft 527 kts 81°
2026-04-25 18:50 47.45621 -43.26234 32521 ft 527 kts 81°
2026-04-25 18:51 47.47201 -43.17529 32520 ft 527 kts 81°
2026-04-25 18:51 47.49403 -43.05280 32514 ft 526 kts 82°
2026-04-25 18:52 47.51235 -42.94814 32526 ft 525 kts 82°
2026-04-25 18:52 47.53078 -42.84343 32525 ft 526 kts 81°
2026-04-25 18:53 47.54929 -42.73882 32529 ft 525 kts 81°
2026-04-25 18:53 47.56775 -42.63417 32522 ft 525 kts 82°
2026-04-25 18:54 47.59510 -42.47782 32534 ft 524 kts 82°
2026-04-25 18:55 47.61328 -42.37310 32534 ft 524 kts 82°
2026-04-25 18:55 47.63135 -42.26831 32537 ft 524 kts 82°
2026-04-25 18:56 47.64935 -42.16344 32537 ft 524 kts 82°
2026-04-25 18:56 47.66724 -42.05846 32539 ft 524 kts 82°
2026-04-25 18:57 47.68500 -41.95362 32539 ft 523 kts 82°
2026-04-25 18:57 47.70244 -41.84934 32544 ft 523 kts 83°
2026-04-25 18:58 47.71961 -41.74409 32544 ft 523 kts 83°
2026-04-25 18:58 47.74559 -41.58637 32544 ft 523 kts 83°
2026-04-25 18:59 47.78007 -41.37677 32519 ft 524 kts 83°
2026-04-25 19:00 47.80577 -41.21865 32555 ft 524 kts 83°
2026-04-25 19:01 47.83127 -41.06029 32555 ft 524 kts 84°
2026-04-25 19:01 47.84801 -40.95547 32553 ft 524 kts 84°
2026-04-25 19:02 47.87310 -40.79715 32557 ft 523 kts 84°
2026-04-25 19:03 47.89248 -40.67355 32562 ft 523 kts 84°
2026-04-25 19:03 47.91383 -40.53283 32562 ft 523 kts 84°
2026-04-25 19:04 47.93817 -40.37381 32563 ft 526 kts 84°
2026-04-25 19:05 47.97066 -40.16118 32578 ft 526 kts 85°
2026-04-25 19:06 47.98680 -40.05444 32560 ft 526 kts 85°
2026-04-25 19:06 48.00669 -39.89418 32578 ft 520 kts 93°
2026-04-25 19:07 48.01292 -39.73302 32589 ft 516 kts 96°
2026-04-25 19:08 48.01867 -39.57225 32529 ft 517 kts 95°
2026-04-25 19:09 48.02581 -39.39284 32597 ft 521 kts 94°
2026-04-25 19:10 48.03341 -39.19489 32605 ft 521 kts 95°
2026-04-25 19:10 48.03738 -39.08679 32606 ft 520 kts 95°
2026-04-25 19:11 48.04125 -38.97887 32617 ft 519 kts 94°
2026-04-25 19:11 48.04498 -38.87178 32604 ft 518 kts 95°
2026-04-25 19:12 48.04862 -38.76394 32610 ft 521 kts 94°
2026-04-25 19:12 48.05145 -38.67364 32614 ft 522 kts 95°
2026-04-25 19:13 48.05450 -38.56505 32618 ft 522 kts 95°
2026-04-25 19:13 48.05771 -38.45667 32620 ft 520 kts 94°
2026-04-25 19:14 48.06097 -38.34880 32626 ft 519 kts 94°
2026-04-25 19:14 48.06415 -38.24089 32626 ft 519 kts 94°
2026-04-25 19:15 48.06722 -38.13293 32617 ft 519 kts 94°
2026-04-25 19:15 48.07017 -38.02568 32588 ft 519 kts 94°
2026-04-25 19:16 48.07303 -37.91792 32627 ft 517 kts 94°
2026-04-25 19:16 48.07579 -37.81012 32633 ft 517 kts 94°
2026-04-25 19:17 48.07842 -37.70307 32639 ft 517 kts 95°
2026-04-25 19:17 48.08096 -37.59551 32639 ft 517 kts 95°
2026-04-25 19:18 48.08341 -37.48796 32621 ft 516 kts 95°
2026-04-25 19:18 48.08538 -37.38081 32618 ft 515 kts 95°
2026-04-25 19:19 48.08727 -37.27331 32651 ft 517 kts 95°
2026-04-25 19:19 48.08933 -37.16553 32658 ft 518 kts 95°
2026-04-25 19:20 48.09139 -37.05858 32661 ft 517 kts 95°
2026-04-25 19:20 48.09336 -36.95065 32661 ft 517 kts 95°
2026-04-25 19:21 48.09521 -36.84293 32672 ft 517 kts 95°
2026-04-25 19:21 48.09778 -36.68228 32672 ft 517 kts 95°
2026-04-25 19:22 48.09937 -36.57474 32678 ft 518 kts 95°
2026-04-25 19:23 48.10157 -36.41295 32676 ft 518 kts 95°
2026-04-25 19:23 48.10355 -36.25132 32694 ft 518 kts 95°
2026-04-25 19:24 48.10439 -36.14420 32702 ft 517 kts 95°
2026-04-25 19:25 48.10601 -35.92889 32695 ft 517 kts 95°
2026-04-25 19:25 48.10690 -35.82093 32716 ft 519 kts 95°
2026-04-25 19:26 48.10771 -35.71288 32723 ft 520 kts 95°
2026-04-25 19:26 48.10841 -35.60456 32731 ft 520 kts 95°
2026-04-25 19:27 48.10891 -35.51465 32731 ft 519 kts 95°
2026-04-25 19:27 48.10948 -35.38904 32750 ft 519 kts 95°
2026-04-25 19:28 48.10986 -35.28108 32744 ft 519 kts 95°
2026-04-25 19:28 48.11014 -35.17313 32744 ft 519 kts 95°
2026-04-25 19:29 48.11032 -35.06511 32756 ft 519 kts 95°
2026-04-25 19:29 48.11030 -34.95713 32770 ft 518 kts 95°
2026-04-25 19:30 48.10982 -34.84912 32766 ft 518 kts 95°
2026-04-25 19:30 48.10947 -34.74180 32779 ft 519 kts 95°
2026-04-25 19:31 48.10923 -34.63371 32778 ft 518 kts 95°
2026-04-25 19:31 48.10892 -34.52547 32793 ft 518 kts 95°
2026-04-25 19:32 48.10851 -34.41836 32795 ft 518 kts 95°
2026-04-25 19:32 48.10807 -34.32851 32795 ft 519 kts 95°
2026-04-25 19:33 48.10734 -34.20222 32807 ft 519 kts 95°
2026-04-25 19:33 48.10662 -34.09466 32812 ft 519 kts 95°
2026-04-25 19:34 48.10578 -33.98666 32813 ft 519 kts 95°
2026-04-25 19:34 48.10485 -33.87850 32829 ft 519 kts 95°
2026-04-25 19:35 48.10381 -33.77045 32828 ft 519 kts 95°
2026-04-25 19:35 48.10234 -33.66228 32817 ft 519 kts 96°
2026-04-25 19:36 48.10073 -33.55484 32854 ft 520 kts 95°
2026-04-25 19:36 48.09929 -33.44675 32857 ft 520 kts 95°
2026-04-25 19:37 48.09786 -33.33859 32865 ft 520 kts 95°
2026-04-25 19:37 48.09633 -33.23040 32872 ft 520 kts 95°
2026-04-25 19:38 48.09468 -33.12203 32881 ft 520 kts 95°
2026-04-25 19:38 48.09293 -33.01396 32887 ft 520 kts 95°
2026-04-25 19:39 48.09109 -32.90631 32873 ft 520 kts 95°
2026-04-25 19:39 48.08912 -32.79802 32899 ft 521 kts 95°
2026-04-25 19:40 48.08707 -32.68957 32907 ft 520 kts 95°
2026-04-25 19:40 48.08491 -32.58143 32905 ft 520 kts 95°
2026-04-25 19:41 48.08256 -32.47326 32928 ft 520 kts 96°
2026-04-25 19:41 48.08069 -32.40169 32922 ft 520 kts 96°
2026-04-25 19:42 48.07707 -32.25801 32926 ft 519 kts 95°
2026-04-25 19:42 48.07448 -32.14996 32929 ft 519 kts 95°
2026-04-25 19:43 48.07183 -32.04183 32945 ft 520 kts 95°
2026-04-25 19:43 48.06907 -31.93367 32944 ft 520 kts 95°
2026-04-25 19:44 48.06620 -31.82546 32957 ft 520 kts 95°
2026-04-25 19:44 48.06325 -31.71800 32958 ft 520 kts 95°
2026-04-25 19:45 48.06017 -31.60979 32966 ft 520 kts 95°
2026-04-25 19:45 48.05699 -31.50162 32974 ft 520 kts 96°
2026-04-25 19:46 48.05371 -31.39342 32965 ft 521 kts 96°
2026-04-25 19:46 48.05034 -31.28572 32975 ft 522 kts 96°
2026-04-25 19:47 48.04652 -31.17733 32984 ft 520 kts 96°
2026-04-25 19:47 48.04256 -31.06921 32990 ft 520 kts 96°
2026-04-25 19:48 48.03877 -30.96110 32998 ft 520 kts 96°
2026-04-25 19:48 48.03502 -30.85362 33004 ft 520 kts 96°
2026-04-25 19:49 48.03244 -30.78136 33001 ft 520 kts 96°
2026-04-25 19:49 48.02717 -30.63777 33014 ft 519 kts 96°
2026-04-25 19:50 48.02103 -30.47661 33018 ft 519 kts 96°
2026-04-25 19:51 48.01679 -30.36894 33031 ft 519 kts 96°
2026-04-25 19:51 48.01245 -30.26100 33032 ft 519 kts 96°
2026-04-25 19:52 48.00802 -30.15329 33034 ft 518 kts 96°
2026-04-25 19:52 48.00349 -30.04591 33040 ft 518 kts 96°
2026-04-25 19:53 48.00263 -29.93808 33035 ft 521 kts 90°
2026-04-25 19:53 48.00714 -29.83055 33050 ft 522 kts 88°
2026-04-25 19:54 48.01246 -29.72206 33053 ft 522 kts 88°
2026-04-25 19:54 48.01723 -29.61387 33057 ft 521 kts 89°
2026-04-25 19:55 48.02158 -29.50652 33067 ft 521 kts 89°
2026-04-25 19:55 48.02581 -29.39846 33066 ft 521 kts 89°
2026-04-25 19:56 48.02995 -29.29041 33057 ft 520 kts 89°
2026-04-25 19:56 48.03333 -29.20057 33066 ft 520 kts 89°
2026-04-25 19:57 48.03730 -29.09268 33078 ft 520 kts 89°
2026-04-25 19:57 48.04118 -28.98461 33076 ft 520 kts 89°
2026-04-25 19:58 48.04494 -28.87664 33075 ft 520 kts 89°
2026-04-25 19:58 48.04857 -28.76852 33079 ft 519 kts 89°
2026-04-25 19:59 48.05166 -28.66123 33082 ft 519 kts 89°
2026-04-25 19:59 48.05485 -28.55340 33087 ft 519 kts 89°
2026-04-25 20:00 48.05816 -28.44558 33086 ft 519 kts 89°
2026-04-25 20:00 48.06144 -28.33779 33090 ft 519 kts 89°
2026-04-25 20:01 48.06612 -28.17677 33090 ft 518 kts 89°
2026-04-25 20:01 48.06912 -28.06911 33095 ft 518 kts 89°
2026-04-25 20:02 48.07202 -27.96138 33100 ft 518 kts 89°
2026-04-25 20:02 48.07481 -27.85365 33100 ft 518 kts 89°
2026-04-25 20:03 48.07749 -27.74658 33103 ft 518 kts 89°
2026-04-25 20:03 48.08008 -27.63886 33102 ft 518 kts 89°
2026-04-25 20:04 48.08255 -27.53111 33103 ft 518 kts 89°
2026-04-25 20:04 48.08449 -27.42327 33101 ft 518 kts 89°
2026-04-25 20:05 48.08650 -27.31534 33111 ft 518 kts 89°
2026-04-25 20:05 48.08863 -27.20832 33114 ft 518 kts 89°
2026-04-25 20:06 48.09074 -27.10055 33110 ft 518 kts 89°
2026-04-25 20:06 48.09275 -26.99263 33114 ft 518 kts 89°
2026-04-25 20:07 48.09462 -26.88560 33106 ft 517 kts 89°
2026-04-25 20:07 48.09641 -26.77785 33116 ft 518 kts 89°
2026-04-25 20:08 48.09809 -26.67007 33118 ft 518 kts 89°
2026-04-25 20:08 48.09968 -26.56229 33119 ft 517 kts 89°
2026-04-25 20:09 48.10115 -26.45529 33117 ft 517 kts 89°
2026-04-25 20:09 48.10253 -26.34766 33118 ft 516 kts 89°
2026-04-25 20:10 48.10359 -26.24029 33119 ft 516 kts 89°
2026-04-25 20:10 48.10434 -26.13292 33121 ft 516 kts 89°
2026-04-25 20:11 48.10526 -26.02547 33124 ft 516 kts 89°
2026-04-25 20:11 48.10623 -25.91807 33124 ft 515 kts 89°
2026-04-25 20:12 48.10713 -25.81090 33124 ft 515 kts 89°
2026-04-25 20:12 48.10779 -25.72174 33127 ft 515 kts 89°
2026-04-25 20:13 48.10858 -25.59708 33127 ft 515 kts 89°
2026-04-25 20:13 48.10915 -25.48978 33125 ft 515 kts 89°
2026-04-25 20:14 48.10963 -25.38250 33127 ft 516 kts 89°
2026-04-25 20:14 48.11000 -25.27504 33127 ft 516 kts 89°
2026-04-25 20:15 48.11028 -25.16775 33127 ft 516 kts 89°
2026-04-25 20:15 48.11045 -25.06051 33130 ft 515 kts 89°
2026-04-25 20:16 48.11011 -24.95317 33124 ft 516 kts 90°
2026-04-25 20:16 48.10976 -24.84582 33123 ft 516 kts 89°
2026-04-25 20:17 48.10957 -24.73837 33121 ft 516 kts 89°
2026-04-25 20:17 48.10936 -24.63087 33121 ft 516 kts 89°
2026-04-25 20:18 48.10905 -24.52351 33125 ft 516 kts 89°
2026-04-25 20:18 48.10862 -24.41626 33124 ft 515 kts 89°
2026-04-25 20:19 48.10810 -24.30949 33118 ft 516 kts 89°
2026-04-25 20:19 48.10747 -24.20207 33119 ft 516 kts 89°
2026-04-25 20:20 48.10674 -24.09466 33126 ft 515 kts 89°
2026-04-25 20:20 48.10591 -23.98769 33122 ft 513 kts 89°
2026-04-25 20:21 48.10500 -23.88159 33121 ft 514 kts 89°
2026-04-25 20:21 48.10385 -23.77447 33122 ft 514 kts 89°
2026-04-25 20:22 48.10279 -23.70286 33120 ft 514 kts 89°
2026-04-25 20:22 48.10084 -23.56035 33120 ft 513 kts 89°
2026-04-25 20:23 48.09951 -23.45392 33116 ft 513 kts 89°
2026-04-25 20:23 48.09811 -23.34700 33117 ft 513 kts 89°
2026-04-25 20:24 48.09661 -23.24073 33118 ft 514 kts 89°
2026-04-25 20:24 48.09499 -23.13392 33129 ft 513 kts 89°
2026-04-25 20:25 48.09327 -23.02734 33116 ft 512 kts 89°
2026-04-25 20:25 48.09146 -22.92075 33117 ft 512 kts 89°
2026-04-25 20:26 48.08954 -22.81379 33115 ft 513 kts 89°
2026-04-25 20:26 48.08753 -22.70710 33140 ft 513 kts 88°
2026-04-25 20:27 48.08541 -22.60061 33118 ft 511 kts 88°
2026-04-25 20:27 48.08294 -22.49505 33108 ft 511 kts 89°
2026-04-25 20:28 48.08025 -22.38891 33117 ft 511 kts 89°
2026-04-25 20:28 48.07773 -22.28252 33117 ft 511 kts 89°
2026-04-25 20:29 48.07525 -22.17630 33116 ft 511 kts 89°
2026-04-25 20:29 48.07269 -22.07076 33117 ft 511 kts 89°
2026-04-25 20:30 48.07000 -21.96454 33111 ft 511 kts 89°
2026-04-25 20:30 48.06721 -21.85828 33118 ft 511 kts 89°
2026-04-25 20:31 48.06432 -21.75210 33128 ft 510 kts 89°
2026-04-25 20:31 48.06133 -21.64605 33109 ft 509 kts 89°
2026-04-25 20:32 48.05826 -21.54036 33113 ft 509 kts 89°
2026-04-25 20:32 48.05509 -21.43464 33112 ft 508 kts 89°
2026-04-25 20:33 48.05182 -21.32914 33109 ft 508 kts 89°
2026-04-25 20:33 48.04936 -21.25918 33116 ft 507 kts 90°
2026-04-25 20:34 48.04431 -21.11920 33110 ft 506 kts 90°
2026-04-25 20:34 48.04071 -21.01405 33108 ft 506 kts 90°
2026-04-25 20:35 48.03709 -20.90889 33106 ft 506 kts 90°
2026-04-25 20:35 48.03340 -20.80430 33119 ft 506 kts 91°
2026-04-25 20:36 48.02958 -20.69953 33107 ft 504 kts 91°
2026-04-25 20:36 48.02567 -20.59495 33107 ft 504 kts 91°
2026-04-25 20:37 48.02167 -20.49029 33105 ft 504 kts 91°
2026-04-25 20:37 48.01758 -20.38572 33108 ft 504 kts 91°
2026-04-25 20:38 48.01343 -20.28210 33108 ft 501 kts 92°
2026-04-25 20:38 48.00917 -20.17827 33110 ft 500 kts 93°
2026-04-25 20:39 48.00478 -20.07452 33105 ft 500 kts 93°
2026-04-25 20:39 48.00187 -20.00522 33104 ft 500 kts 91°
2026-04-25 20:40 48.00287 -19.86701 33105 ft 498 kts 88°
2026-04-25 20:40 48.00512 -19.78109 33108 ft 498 kts 88°
2026-04-25 20:41 48.00756 -19.67766 33110 ft 499 kts 88°
2026-04-25 20:41 48.00961 -19.57420 33108 ft 499 kts 88°
2026-04-25 20:42 48.01148 -19.47049 33108 ft 499 kts 88°
2026-04-25 20:42 48.01327 -19.36703 33107 ft 498 kts 89°
2026-04-25 20:43 48.01496 -19.26349 33110 ft 498 kts 89°
2026-04-25 20:43 48.01655 -19.16071 33116 ft 498 kts 89°
2026-04-25 20:44 48.01807 -19.05722 33116 ft 498 kts 89°
2026-04-25 20:44 48.01949 -18.95396 33115 ft 496 kts 90°
2026-04-25 20:45 48.02081 -18.85102 33117 ft 496 kts 90°
2026-04-25 20:45 48.02193 -18.74798 33123 ft 495 kts 90°
2026-04-25 20:46 48.02261 -18.64499 33129 ft 495 kts 90°
2026-04-25 20:46 48.02345 -18.54202 33127 ft 495 kts 91°
2026-04-25 20:47 48.02438 -18.43915 33123 ft 495 kts 91°
2026-04-25 20:47 48.02525 -18.33667 33129 ft 497 kts 91°
2026-04-25 20:48 48.02603 -18.23316 33135 ft 498 kts 91°
2026-04-25 20:48 48.02671 -18.12968 33126 ft 498 kts 91°
2026-04-25 20:49 48.02730 -18.02653 33140 ft 496 kts 92°
2026-04-25 20:49 48.02779 -17.92347 33146 ft 496 kts 92°
2026-04-25 20:50 48.02818 -17.82031 33148 ft 496 kts 92°
2026-04-25 20:50 48.02849 -17.71778 33151 ft 496 kts 92°
2026-04-25 20:51 48.02870 -17.61473 33151 ft 496 kts 92°
2026-04-25 20:51 48.02873 -17.51156 33157 ft 496 kts 92°
2026-04-25 20:52 48.02838 -17.42600 33159 ft 496 kts 92°
2026-04-25 20:52 48.02802 -17.30579 33160 ft 497 kts 92°
2026-04-25 20:53 48.02784 -17.20245 33157 ft 497 kts 93°
2026-04-25 20:53 48.02761 -17.09917 33161 ft 497 kts 93°
2026-04-25 20:54 48.02727 -16.99578 33164 ft 498 kts 93°
2026-04-25 20:54 48.02683 -16.89204 33158 ft 498 kts 93°
2026-04-25 20:55 48.02631 -16.78907 33162 ft 498 kts 94°
2026-04-25 20:55 48.02569 -16.68541 33172 ft 499 kts 94°
2026-04-25 20:56 48.02497 -16.58171 33173 ft 498 kts 94°
2026-04-25 20:56 48.02416 -16.47799 33185 ft 498 kts 94°
2026-04-25 20:57 48.02326 -16.37499 33184 ft 498 kts 94°
2026-04-25 20:57 48.02219 -16.27150 33185 ft 498 kts 95°
2026-04-25 20:58 48.02064 -16.16807 33191 ft 498 kts 95°
2026-04-25 20:58 48.01923 -16.06464 33191 ft 498 kts 95°
2026-04-25 20:59 48.01792 -15.96108 33196 ft 498 kts 95°
2026-04-25 20:59 48.01658 -15.85774 33189 ft 498 kts 96°
2026-04-25 21:00 48.01562 -15.78914 33200 ft 499 kts 96°
2026-04-25 21:01 48.01276 -15.59919 33201 ft 499 kts 96°
2026-04-25 21:01 48.01106 -15.49551 33205 ft 499 kts 96°
2026-04-25 21:02 48.00926 -15.39161 33206 ft 501 kts 97°
2026-04-25 21:02 48.00736 -15.28744 33210 ft 502 kts 97°
2026-04-25 21:03 48.00538 -15.18316 33211 ft 502 kts 97°
2026-04-25 21:03 48.00330 -15.07961 33216 ft 501 kts 97°
2026-04-25 21:04 47.99896 -14.97586 33206 ft 500 kts 100°
2026-04-25 21:04 47.99314 -14.87239 33221 ft 500 kts 100°
2026-04-25 21:05 47.98740 -14.76899 33220 ft 500 kts 100°
2026-04-25 21:05 47.98180 -14.66547 33224 ft 500 kts 100°
2026-04-25 21:06 47.97619 -14.56203 33181 ft 500 kts 100°
2026-04-25 21:06 47.97047 -14.45850 33226 ft 501 kts 100°
2026-04-25 21:07 47.96468 -14.35554 33229 ft 501 kts 101°
2026-04-25 21:07 47.95876 -14.25204 33226 ft 501 kts 101°
2026-04-25 21:08 47.95274 -14.14846 33229 ft 501 kts 101°
2026-04-25 21:08 47.94661 -14.04469 33228 ft 503 kts 101°
2026-04-25 21:09 47.93726 -13.88932 33233 ft 503 kts 101°
2026-04-25 21:09 47.93072 -13.78541 33235 ft 502 kts 101°
2026-04-25 21:10 47.92382 -13.68157 33232 ft 503 kts 101°
2026-04-25 21:10 47.91707 -13.57755 33232 ft 505 kts 101°
2026-04-25 21:11 47.91041 -13.47381 33232 ft 505 kts 101°
2026-04-25 21:11 47.90366 -13.36953 33234 ft 505 kts 101°
2026-04-25 21:12 47.89680 -13.26530 33249 ft 505 kts 101°
2026-04-25 21:12 47.89102 -13.17871 33229 ft 505 kts 101°
2026-04-25 21:13 47.88273 -13.05647 33231 ft 507 kts 101°
2026-04-25 21:13 47.87560 -12.95265 33250 ft 507 kts 101°
2026-04-25 21:14 47.86832 -12.84802 33236 ft 507 kts 101°
2026-04-25 21:14 47.86096 -12.74372 33231 ft 507 kts 101°
2026-04-25 21:15 47.85347 -12.63906 33246 ft 508 kts 101°
2026-04-25 21:15 47.84562 -12.53428 33246 ft 508 kts 101°
2026-04-25 21:16 47.83760 -12.43029 33246 ft 508 kts 101°
2026-04-25 21:16 47.82971 -12.32586 33246 ft 508 kts 101°
2026-04-25 21:17 47.82185 -12.22135 33245 ft 508 kts 101°
2026-04-25 21:17 47.81389 -12.11659 33246 ft 508 kts 101°
2026-04-25 21:18 47.80584 -12.01204 33227 ft 508 kts 101°
2026-04-25 21:18 47.79768 -11.90749 33248 ft 507 kts 101°
2026-04-25 21:19 47.78950 -11.80394 33247 ft 507 kts 100°
2026-04-25 21:19 47.78117 -11.69971 33249 ft 507 kts 101°
2026-04-25 21:20 47.77555 -11.63004 33250 ft 507 kts 101°
2026-04-25 21:20 47.76425 -11.49152 33252 ft 507 kts 101°
2026-04-25 21:21 47.75565 -11.38752 33244 ft 507 kts 101°
2026-04-25 21:21 47.74659 -11.28369 33248 ft 507 kts 101°
2026-04-25 21:22 47.73750 -11.18021 33251 ft 507 kts 101°
2026-04-25 21:22 47.72855 -11.07641 33251 ft 507 kts 101°
2026-04-25 21:23 47.71959 -10.97260 33240 ft 507 kts 101°
2026-04-25 21:23 47.71053 -10.86872 33254 ft 507 kts 101°
2026-04-25 21:24 47.70143 -10.76562 33250 ft 506 kts 101°
2026-04-25 21:24 47.69219 -10.66208 33253 ft 506 kts 101°
2026-04-25 21:25 47.68284 -10.55846 33253 ft 506 kts 101°
2026-04-25 21:25 47.67346 -10.45546 33249 ft 506 kts 101°
2026-04-25 21:26 47.66394 -10.35199 33249 ft 506 kts 101°
2026-04-25 21:26 47.65433 -10.24860 33249 ft 506 kts 102°
2026-04-25 21:27 47.64625 -10.16250 33251 ft 506 kts 102°
2026-04-25 21:27 47.63610 -10.05927 33248 ft 506 kts 102°
2026-04-25 21:28 47.62424 -9.93918 33249 ft 506 kts 102°
2026-04-25 21:28 47.61587 -9.85313 33249 ft 506 kts 102°
2026-04-25 21:29 47.60581 -9.74980 33252 ft 506 kts 102°
2026-04-25 21:29 47.59568 -9.64671 33242 ft 506 kts 102°
2026-04-25 21:30 47.58541 -9.54331 33245 ft 507 kts 102°
2026-04-25 21:30 47.57680 -9.45739 33247 ft 507 kts 102°
2026-04-25 21:31 47.56459 -9.33664 33256 ft 507 kts 102°
2026-04-25 21:31 47.55403 -9.23334 33249 ft 507 kts 102°
2026-04-25 21:32 47.54342 -9.13054 33249 ft 508 kts 102°
2026-04-25 21:32 47.53267 -9.02716 33252 ft 508 kts 102°
2026-04-25 21:33 47.52179 -8.92381 33249 ft 508 kts 102°
2026-04-25 21:33 47.51042 -8.82070 33245 ft 507 kts 103°
2026-04-25 21:34 47.50084 -8.71714 33243 ft 510 kts 97°
2026-04-25 21:34 47.49971 -8.61251 33244 ft 512 kts 92°
2026-04-25 21:35 47.50101 -8.50695 33250 ft 513 kts 92°
2026-04-25 21:35 47.50175 -8.40144 33245 ft 512 kts 92°
2026-04-25 21:36 47.50187 -8.29612 33230 ft 511 kts 92°
2026-04-25 21:36 47.50178 -8.19154 33243 ft 510 kts 92°
2026-04-25 21:37 47.50163 -8.10409 33242 ft 510 kts 92°
2026-04-25 21:37 47.50135 -7.98141 33238 ft 510 kts 92°
2026-04-25 21:38 47.50123 -7.87624 33239 ft 512 kts 92°
2026-04-25 21:38 47.50129 -7.77158 33242 ft 512 kts 92°
2026-04-25 21:39 47.50134 -7.66619 33237 ft 512 kts 92°
2026-04-25 21:39 47.50129 -7.56091 33240 ft 512 kts 92°
2026-04-25 21:40 47.50112 -7.45534 33232 ft 513 kts 91°
2026-04-25 21:40 47.50086 -7.35026 33237 ft 514 kts 91°
2026-04-25 21:41 47.50050 -7.24461 33232 ft 514 kts 92°
2026-04-25 21:41 47.50004 -7.13888 33234 ft 514 kts 92°
2026-04-25 21:42 47.49948 -7.03309 33239 ft 515 kts 91°
2026-04-25 21:42 47.49882 -6.92696 33235 ft 515 kts 91°
2026-04-25 21:43 47.49807 -6.82088 33235 ft 515 kts 91°
2026-04-25 21:43 47.49693 -6.71560 33237 ft 515 kts 92°
2026-04-25 21:44 47.49559 -6.60956 33231 ft 515 kts 91°
2026-04-25 21:45 47.49388 -6.45052 33233 ft 515 kts 91°
2026-04-25 21:45 47.49271 -6.34456 33229 ft 515 kts 91°
2026-04-25 21:46 47.49143 -6.23925 33224 ft 515 kts 91°
2026-04-25 21:46 47.49004 -6.13319 33235 ft 512 kts 91°
2026-04-25 21:47 47.48858 -6.02874 33222 ft 512 kts 91°
2026-04-25 21:47 47.48700 -5.92322 33222 ft 512 kts 91°
2026-04-25 21:48 47.48533 -5.81799 33229 ft 511 kts 91°
2026-04-25 21:48 47.48357 -5.71315 33230 ft 509 kts 91°
2026-04-25 21:49 47.48171 -5.60844 33219 ft 509 kts 91°
2026-04-25 21:49 47.47954 -5.50366 33216 ft 509 kts 91°
2026-04-25 21:50 47.47710 -5.39974 33220 ft 509 kts 91°
2026-04-25 21:50 47.47482 -5.29517 33222 ft 509 kts 91°
2026-04-25 21:51 47.47258 -5.19055 33213 ft 508 kts 91°
2026-04-25 21:51 47.47028 -5.08630 33219 ft 507 kts 91°
2026-04-25 21:52 47.46787 -4.98205 33211 ft 507 kts 91°
2026-04-25 21:52 47.46536 -4.87791 33202 ft 507 kts 91°
2026-04-25 21:53 47.46276 -4.77368 33209 ft 507 kts 91°
2026-04-25 21:53 47.46007 -4.67002 33198 ft 507 kts 91°
2026-04-25 21:54 47.45728 -4.56584 33192 ft 507 kts 91°
2026-04-25 21:54 47.45439 -4.46165 33192 ft 507 kts 91°
2026-04-25 21:55 47.45141 -4.35767 33182 ft 507 kts 91°
2026-04-25 21:55 47.44800 -4.25345 33192 ft 507 kts 92°
2026-04-25 21:56 47.44447 -4.14932 33184 ft 507 kts 91°
2026-04-25 21:56 47.44113 -4.04576 33186 ft 508 kts 91°
2026-04-25 21:57 47.43777 -3.94153 33175 ft 508 kts 91°
2026-04-25 21:57 47.43433 -3.83727 33181 ft 508 kts 91°
2026-04-25 21:58 47.43078 -3.73306 33180 ft 508 kts 91°
2026-04-25 21:58 47.43330 -3.62953 33170 ft 504 kts 82°
2026-04-25 21:59 47.44076 -3.52666 33170 ft 504 kts 82°
2026-04-25 21:59 47.44697 -3.42347 33173 ft 504 kts 83°
2026-04-25 22:00 47.45431 -3.26830 33170 ft 503 kts 84°
2026-04-25 22:00 47.45890 -3.16515 33170 ft 503 kts 84°
2026-04-25 22:01 47.46342 -3.06271 33174 ft 503 kts 84°
2026-04-25 22:01 47.46719 -2.97628 33185 ft 503 kts 84°
2026-04-25 22:02 47.47232 -2.85634 33179 ft 502 kts 84°
2026-04-25 22:02 47.47662 -2.75327 33179 ft 502 kts 84°
2026-04-25 22:03 47.48083 -2.65033 33181 ft 502 kts 84°
2026-04-25 22:03 47.48495 -2.54715 33181 ft 502 kts 84°
2026-04-25 22:04 47.48860 -2.44461 33186 ft 501 kts 84°
2026-04-25 22:04 47.49218 -2.34163 33185 ft 500 kts 84°
2026-04-25 22:05 47.49590 -2.23951 33183 ft 500 kts 84°
2026-04-25 22:05 47.49965 -2.13660 33182 ft 500 kts 84°
2026-04-25 22:06 47.50365 -2.03392 33184 ft 497 kts 80°
2026-04-25 22:06 47.52083 -1.93658 33181 ft 485 kts 62°
2026-04-25 22:07 47.54943 -1.86617 33180 ft 478 kts 50°
2026-04-25 22:07 47.57497 -1.81323 32723 ft 470 kts 52°
2026-04-25 22:07 47.59240 -1.77222 32346 ft 471 kts 56°
2026-04-25 22:08 47.60837 -1.72953 31948 ft 473 kts 59°
2026-04-25 22:08 47.62318 -1.68592 31570 ft 475 kts 60°
2026-04-25 22:08 47.63735 -1.64168 31206 ft 475 kts 62°
2026-04-25 22:08 47.65118 -1.59729 30834 ft 474 kts 62°
2026-04-25 22:09 47.66494 -1.55280 30458 ft 474 kts 62°
2026-04-25 22:09 47.67870 -1.50832 30244 ft 474 kts 62°
2026-04-25 22:09 47.70636 -1.41925 30180 ft 476 kts 62°
2026-04-25 22:10 47.73411 -1.32998 30181 ft 476 kts 62°
2026-04-25 22:10 47.76185 -1.24052 30185 ft 476 kts 62°
2026-04-25 22:11 47.78946 -1.15115 30182 ft 475 kts 62°
2026-04-25 22:11 47.81685 -1.06220 30184 ft 475 kts 63°
2026-04-25 22:12 47.84433 -0.97259 30181 ft 475 kts 63°
2026-04-25 22:12 47.86232 -0.91307 30183 ft 476 kts 63°
2026-04-25 22:13 47.89840 -0.79307 30184 ft 475 kts 63°
2026-04-25 22:13 47.92095 -0.71850 30184 ft 475 kts 63°
2026-04-25 22:14 47.94810 -0.62872 30183 ft 474 kts 63°
2026-04-25 22:14 47.97522 -0.53881 30186 ft 475 kts 63°
2026-04-25 22:15 48.00223 -0.44889 30183 ft 475 kts 63°
2026-04-25 22:16 48.04248 -0.31425 29901 ft 475 kts 64°
2026-04-25 22:16 48.05594 -0.26907 29487 ft 475 kts 64°
2026-04-25 22:16 48.06938 -0.22387 29067 ft 476 kts 64°
2026-04-25 22:16 48.08281 -0.17858 28658 ft 477 kts 64°
2026-04-25 22:17 48.09628 -0.13311 28302 ft 477 kts 64°
2026-04-25 22:17 48.10974 -0.08759 28199 ft 478 kts 64°
2026-04-25 22:17 48.12321 -0.04195 28197 ft 479 kts 64°
2026-04-25 22:17 48.13652 0.00324 28038 ft 479 kts 64°
2026-04-25 22:18 48.15000 0.04908 27844 ft 481 kts 64°
2026-04-25 22:18 48.16351 0.09512 27583 ft 483 kts 64°
2026-04-25 22:18 48.17706 0.14137 27105 ft 484 kts 65°
2026-04-25 22:18 48.19052 0.18761 26662 ft 484 kts 65°
2026-04-25 22:19 48.20365 0.23334 26203 ft 482 kts 65°
2026-04-25 22:19 48.21680 0.27929 25614 ft 478 kts 65°
2026-04-25 22:19 48.22990 0.32497 24994 ft 474 kts 65°
2026-04-25 22:19 48.24296 0.37030 24351 ft 470 kts 65°
2026-04-25 22:20 48.25591 0.41516 23693 ft 466 kts 65°
2026-04-25 22:20 48.26877 0.45965 22955 ft 463 kts 65°
2026-04-25 22:20 48.28157 0.50401 22282 ft 461 kts 65°
2026-04-25 22:20 48.29408 0.54743 21644 ft 457 kts 65°
2026-04-25 22:21 48.30679 0.59165 20986 ft 452 kts 65°
2026-04-25 22:21 48.31912 0.63459 20358 ft 441 kts 65°
2026-04-25 22:21 48.33074 0.67522 19760 ft 417 kts 65°
2026-04-25 22:21 48.34181 0.71405 19201 ft 390 kts 65°
2026-04-25 22:22 48.35218 0.75045 18674 ft 368 kts 65°
2026-04-25 22:22 48.36197 0.78485 18101 ft 349 kts 65°
2026-04-25 22:22 48.37130 0.81765 17603 ft 333 kts 65°
2026-04-25 22:22 48.38036 0.84949 17138 ft 329 kts 65°
2026-04-25 22:23 48.38930 0.88094 16674 ft 325 kts 66°
2026-04-25 22:23 48.39817 0.91221 16206 ft 324 kts 66°
2026-04-25 22:23 48.40701 0.94337 15752 ft 322 kts 66°
2026-04-25 22:23 48.41574 0.97424 15293 ft 319 kts 66°
2026-04-25 22:24 48.42439 1.00485 14842 ft 317 kts 66°
2026-04-25 22:24 48.43298 1.03530 14386 ft 315 kts 66°
2026-04-25 22:24 48.44150 1.06553 13905 ft 311 kts 66°
2026-04-25 22:24 48.44980 1.09506 13446 ft 309 kts 66°
2026-04-25 22:25 48.45817 1.12458 13218 ft 307 kts 66°
2026-04-25 22:25 48.46665 1.15407 12928 ft 305 kts 65°
2026-04-25 22:25 48.47490 1.18345 12782 ft 304 kts 66°
2026-04-25 22:25 48.48300 1.21294 12665 ft 303 kts 66°
2026-04-25 22:26 48.49100 1.24233 12538 ft 303 kts 66°
2026-04-25 22:26 48.49896 1.27166 12417 ft 302 kts 66°
2026-04-25 22:26 48.50689 1.30099 12306 ft 301 kts 66°
2026-04-25 22:26 48.51543 1.32980 12164 ft 301 kts 63°
2026-04-25 22:27 48.52479 1.35816 11908 ft 300 kts 62°
2026-04-25 22:27 48.53429 1.38611 11650 ft 298 kts 62°
2026-04-25 22:27 48.54369 1.41356 11412 ft 296 kts 62°
2026-04-25 22:27 48.55313 1.44115 11254 ft 294 kts 62°
2026-04-25 22:28 48.56252 1.46864 11218 ft 295 kts 62°
2026-04-25 22:28 48.57278 1.49453 11200 ft 278 kts 49°
2026-04-25 22:28 48.58704 1.51244 11200 ft 260 kts 30°
2026-04-25 22:28 48.60291 1.52531 11216 ft 258 kts 25°
2026-04-25 22:29 48.61907 1.53727 11218 ft 258 kts 25°
2026-04-25 22:29 48.63524 1.54910 11135 ft 260 kts 25°
2026-04-25 22:29 48.65135 1.56091 10848 ft 257 kts 25°
2026-04-25 22:30 48.68327 1.58441 10165 ft 253 kts 25°
2026-04-25 22:30 48.69958 1.59312 9764 ft 251 kts 13°
2026-04-25 22:30 48.71665 1.59875 9382 ft 250 kts 11°
2026-04-25 22:30 48.72786 1.60215 9254 ft 245 kts 11°
2026-04-25 22:31 48.75040 1.60890 9224 ft 248 kts 11°
2026-04-25 22:31 48.76730 1.61396 9031 ft 246 kts 11°
2026-04-25 22:31 48.78415 1.61902 8652 ft 246 kts 11°
2026-04-25 22:31 48.80094 1.62404 8296 ft 245 kts 11°
2026-04-25 22:32 48.81741 1.63028 7907 ft 244 kts 24°
2026-04-25 22:32 48.83070 1.64542 7541 ft 243 kts 47°
2026-04-25 22:32 48.84155 1.66503 7284 ft 240 kts 51°
2026-04-25 22:32 48.85202 1.68489 7235 ft 243 kts 51°
2026-04-25 22:33 48.86254 1.70484 7240 ft 242 kts 51°
2026-04-25 22:33 48.87307 1.72485 7226 ft 243 kts 51°
2026-04-25 22:33 48.88364 1.74486 7223 ft 243 kts 51°
2026-04-25 22:33 48.89422 1.76495 7079 ft 241 kts 50°
2026-04-25 22:34 48.90457 1.78480 6532 ft 239 kts 51°
2026-04-25 22:34 48.91488 1.80451 6151 ft 239 kts 51°
2026-04-25 22:34 48.92506 1.82400 5780 ft 237 kts 51°
2026-04-25 22:34 48.93523 1.84364 5410 ft 235 kts 51°
2026-04-25 22:35 48.94532 1.86312 5076 ft 232 kts 51°
2026-04-25 22:35 48.95531 1.88241 4997 ft 232 kts 51°
2026-04-25 22:35 48.96527 1.90176 4988 ft 232 kts 52°
2026-04-25 22:35 48.97185 1.92360 4950 ft 221 kts 81°
2026-04-25 22:36 48.97017 1.94610 4987 ft 216 kts 108°
2026-04-25 22:36 48.96492 1.96754 4993 ft 216 kts 105°
2026-04-25 22:36 48.96367 1.99000 4986 ft 213 kts 85°
2026-04-25 22:36 48.96465 2.01263 4986 ft 214 kts 85°
2026-04-25 22:37 48.96558 2.03527 4985 ft 214 kts 85°
2026-04-25 22:37 48.96656 2.05787 4980 ft 214 kts 84°
2026-04-25 22:37 48.96779 2.08024 4984 ft 214 kts 83°
2026-04-25 22:37 48.96910 2.10305 4981 ft 214 kts 83°
2026-04-25 22:38 48.97037 2.12568 4983 ft 214 kts 84°
2026-04-25 22:38 48.97155 2.14747 4961 ft 197 kts 83°
2026-04-25 22:38 48.97263 2.16775 4976 ft 194 kts 83°
2026-04-25 22:38 48.97372 2.18811 4979 ft 193 kts 83°
2026-04-25 22:39 48.97480 2.20856 4899 ft 195 kts 84°
2026-04-25 22:39 48.97587 2.22904 4630 ft 193 kts 83°
2026-04-25 22:39 48.97692 2.24929 4382 ft 191 kts 83°
2026-04-25 22:39 48.97796 2.26936 4131 ft 190 kts 83°
2026-04-25 22:40 48.97888 2.28939 3885 ft 189 kts 84°
2026-04-25 22:40 48.97974 2.30932 3644 ft 188 kts 84°
2026-04-25 22:40 48.98067 2.32911 3403 ft 186 kts 83°
2026-04-25 22:40 48.98179 2.34872 3154 ft 185 kts 83°
2026-04-25 22:41 48.98288 2.36821 2910 ft 184 kts 83°
2026-04-25 22:41 48.98392 2.38757 2670 ft 181 kts 84°
2026-04-25 22:41 48.98492 2.40659 2448 ft 181 kts 84°
2026-04-25 22:41 48.98588 2.42516 2175 ft 167 kts 84°
2026-04-25 22:42 48.98674 2.44212 1947 ft 160 kts 84°
2026-04-25 22:42 48.98756 2.45899 1742 ft 159 kts 84°
2026-04-25 22:42 48.98828 2.47570 1530 ft 158 kts 83°
2026-04-25 22:42 48.98924 2.49248 1322 ft 161 kts 83°
2026-04-25 22:43 48.99012 2.50949 1116 ft 160 kts 84°
2026-04-25 22:43 48.99054 2.52637 839 ft 157 kts 84°
2026-04-25 22:43 48.99164 2.54270 656 ft 155 kts 83°
2026-04-25 22:43 48.99251 2.55908 491 ft 157 kts 84°
2026-04-25 22:44 48.99348 2.57564 362 ft 149 kts 85°
2026-04-25 22:44 48.99415 2.58861 364 ft 94 kts 85°
2026-04-25 22:44 48.99452 2.59563 360 ft 49 kts 85°
2026-04-25 22:44 48.99521 2.59921 366 ft 24 kts 44°
2026-04-25 22:45 48.99626 2.59976 364 ft 13 kts
2026-04-25 22:45 48.99657 2.59984 368 ft 3 kts 32°
2026-04-25 22:45 48.99660 2.60040 368 ft 9 kts 97°
2026-04-25 22:45 48.99665 2.60124 366 ft 6 kts 57°
2026-04-25 22:46 48.99699 2.60163 365 ft 7 kts 25°
2026-04-25 22:46 48.99764 2.60167 368 ft 11 kts 358°
2026-04-25 22:46 48.99839 2.60166 360 ft 8 kts 11°
2026-04-25 22:46 48.99883 2.60205 368 ft 8 kts 31°
2026-04-25 22:47 48.99953 2.60240 368 ft 13 kts
2026-04-25 22:47 48.99966 2.60239 366 ft 0 kts 358°
2026-04-25 22:48 48.99971 2.60239 366 ft 4 kts 358°
2026-04-25 22:48 49.00029 2.60235 368 ft 13 kts 358°
2026-04-25 22:48 49.00099 2.60187 367 ft 11 kts 301°
2026-04-25 22:48 49.00103 2.60052 362 ft 15 kts 265°
2026-04-25 22:49 49.00094 2.59876 362 ft 17 kts 265°
2026-04-25 22:49 49.00085 2.59694 367 ft 19 kts 265°
2026-04-25 22:49 49.00073 2.59486 366 ft 19 kts 266°
2026-04-25 22:49 49.00064 2.59294 367 ft 17 kts 264°
2026-04-25 22:50 49.00055 2.59121 362 ft 16 kts 266°
2026-04-25 22:50 49.00045 2.58945 366 ft 19 kts 265°
2026-04-25 22:50 49.00035 2.58752 362 ft 17 kts 265°
2026-04-25 22:50 49.00026 2.58590 362 ft 14 kts 265°
2026-04-25 22:51 49.00019 2.58461 363 ft 11 kts 266°
2026-04-25 22:51 49.00013 2.58345 367 ft 12 kts 265°
2026-04-25 22:51 49.00007 2.58225 365 ft 10 kts 265°
2026-04-25 22:51 49.00002 2.58131 369 ft 7 kts 265°
2026-04-25 22:52 48.99999 2.58068 363 ft 5 kts 265°
2026-04-25 22:52 48.99997 2.58030 362 ft 3 kts 265°
2026-04-25 22:52 48.99996 2.58011 364 ft 1 kts 265°
2026-04-25 22:52 48.99996 2.58010 364 ft 0 kts 265°
2026-04-25 22:53 48.99995 2.57996 363 ft 3 kts 265°
2026-04-25 22:53 48.99992 2.57938 367 ft 8 kts 265°
2026-04-25 22:53 48.99988 2.57871 368 ft 4 kts 265°
2026-04-25 22:53 48.99984 2.57800 367 ft 10 kts 265°
2026-04-25 22:54 48.99977 2.57662 364 ft 16 kts 264°
2026-04-25 22:54 48.99966 2.57471 362 ft 18 kts 266°
2026-04-25 22:54 48.99957 2.57300 364 ft 14 kts 265°
2026-04-25 22:54 48.99948 2.57143 367 ft 16 kts 264°
2026-04-25 22:55 48.99938 2.56962 362 ft 18 kts 265°
2026-04-25 22:55 48.99928 2.56758 367 ft 20 kts 265°
2026-04-25 22:55 48.99917 2.56555 368 ft 19 kts 265°
2026-04-25 22:55 48.99907 2.56349 362 ft 19 kts 265°
2026-04-25 22:56 48.99898 2.56164 362 ft 18 kts 264°
2026-04-25 22:56 48.99891 2.55979 362 ft 17 kts 274°
2026-04-25 22:56 48.99914 2.55810 367 ft 17 kts 286°
2026-04-25 22:56 48.99990 2.55672 365 ft 18 kts 338°
2026-04-25 22:57 49.00119 2.55615 369 ft 19 kts 345°
2026-04-25 22:57 49.00245 2.55561 366 ft 19 kts 341°
2026-04-25 22:57 49.00365 2.55506 369 ft 16 kts 344°
2026-04-25 22:57 49.00464 2.55464 363 ft 13 kts 344°
2026-04-25 22:58 49.00543 2.55431 366 ft 10 kts 344°
2026-04-25 22:58 49.00620 2.55396 366 ft 14 kts 343°
2026-04-25 22:58 49.00687 2.55366 365 ft 16 kts 346°
2026-04-25 22:58 49.00786 2.55325 368 ft 13 kts 344°
2026-04-25 22:59 49.00863 2.55292 366 ft 10 kts 344°
2026-04-25 22:59 49.00923 2.55265 368 ft 9 kts 344°
2026-04-25 22:59 49.00989 2.55236 366 ft 11 kts 343°
2026-04-25 22:59 49.01072 2.55199 366 ft 14 kts 344°
2026-04-25 23:00 49.01176 2.55154 369 ft 17 kts 344°
2026-04-25 23:00 49.01237 2.55041 367 ft 12 kts 266°
2026-04-25 23:00 49.01231 2.54905 362 ft 15 kts 266°
2026-04-25 23:00 49.01221 2.54720 364 ft 20 kts 265°
2026-04-25 23:01 49.01208 2.54494 363 ft 21 kts 265°
2026-04-25 23:01 49.01194 2.54270 347 ft 24 kts 265°
2026-04-25 23:01 49.01185 2.54067 359 ft 13 kts 266°
2026-04-25 23:01 49.01178 2.53931 366 ft 14 kts 265°
2026-04-25 23:02 49.01193 2.53775 363 ft 15 kts 297°
2026-04-25 23:02 49.01273 2.53670 369 ft 17 kts 332°
2026-04-25 23:02 49.01389 2.53616 366 ft 18 kts 351°
2026-04-25 23:02 49.01503 2.53612 364 ft 15 kts 360°
2026-04-25 23:03 49.01600 2.53586 367 ft 14 kts 336°
2026-04-25 23:03 49.01664 2.53480 367 ft 12 kts 294°
2026-04-25 23:03 49.01676 2.53350 368 ft 13 kts 267°
2026-04-25 23:03 49.01669 2.53208 367 ft 14 kts 266°
2026-04-25 23:04 49.01662 2.53058 363 ft 14 kts 266°
2026-04-25 23:04 49.01653 2.52898 368 ft 16 kts 264°
2026-04-25 23:04 49.01638 2.52722 367 ft 17 kts 248°
2026-04-25 23:04 49.01561 2.52591 367 ft 17 kts 239°
2026-04-25 23:05 49.01536 2.52407 364 ft 19 kts 265°
2026-04-25 23:05 49.01525 2.52202 368 ft 20 kts 265°
2026-04-25 23:05 49.01514 2.52002 369 ft 17 kts 265°
2026-04-25 23:05 49.01507 2.51833 367 ft 16 kts 267°
2026-04-25 23:06 49.01497 2.51655 365 ft 19 kts 265°
2026-04-25 23:06 49.01485 2.51452 365 ft 18 kts 265°
2026-04-25 23:06 49.01474 2.51273 362 ft 17 kts 265°
2026-04-25 23:06 49.01465 2.51087 366 ft 19 kts 266°
2026-04-25 23:07 49.01454 2.50874 368 ft 22 kts 265°
2026-04-25 23:07 49.01442 2.50655 369 ft 19 kts 265°
2026-04-25 23:07 49.01431 2.50469 367 ft 16 kts 265°
2026-04-25 23:07 49.01396 2.50394 366 ft 7 kts 202°
2026-04-25 23:08 49.01341 2.50387 365 ft 9 kts 178°
2026-04-25 23:08 49.01270 2.50394 366 ft 10 kts 176°
2026-04-25 23:08 49.01198 2.50402 366 ft 12 kts 175°
2026-04-25 23:08 49.01125 2.50403 367 ft 7 kts 200°
2026-04-25 23:09 49.01112 2.50371 369 ft 2 kts 249°
2026-04-25 23:09 49.01107 2.50353 365 ft 5 kts 248°
2026-04-25 23:09 49.01097 2.50288 368 ft 6 kts 261°
2026-04-25 23:09 49.01096 2.50278 368 ft 1 kts 262°
2026-04-25 23:10 49.01096 2.50269 368 ft 0 kts 267°